M I D A S
Marine Information and Data Acquisition System
Tripno 1034 of the Zeeleeuw from 2006-02-22 07:44:26 to 2006-02-22 12:53:22
Back to CruiseResearch ActivitiesStationsMapUnderway DataData graphs

EquipmentUnitsComment
TimeDGPSUTC
LatitudeDGPSDM.mWGS84
LongitudeDGPSDM.mWGS84
TemperatureSBE03/SBE38deg celciusITS90
ConductivitySBE21S/mITS90
SalinitySBE21 Practical Salinity Units
ChlorophylAChelsea fluorimeterg/lCalibrated in Aceton
Missing or incorrect values are displayed as -999
Sea surface data collected by the RV Zeeleeuw from 2006-02-22 07:27:39 to 2006-02-22 13:15:29
                                                                                    Next 1000 lines
Time Latitude Longitude Temperature Conductivity Salinity ChlorophylA
2006-02-22 07:27:49 51°13.599 2°56.091 -999 2.688679 21.402834 -1.421728
2006-02-22 07:27:55 51°13.599 2°56.088 -999 2.688576 21.40193 -1.421728
2006-02-22 07:27:59 51°13.6 2°56.085 -999 2.688576 21.402397 -1.421728
2006-02-22 07:28:05 51°13.601 2°56.081 -999 2.688576 21.402397 -1.421728
2006-02-22 07:28:10 51°13.603 2°56.077 -999 2.688576 21.402397 -1.388018
2006-02-22 07:28:15 51°13.604 2°56.072 -999 2.688576 21.402397 -1.388018
2006-02-22 07:28:20 51°13.605 2°56.067 -999 2.688576 21.402865 -1.421728
2006-02-22 07:28:24 51°13.607 2°56.063 -999 2.688473 21.40196 -1.421728
2006-02-22 07:28:30 51°13.608 2°56.055 -999 2.688473 21.40196 -1.421728
2006-02-22 07:28:35 51°13.61 2°56.049 -999 2.688473 21.402428 -1.421728
2006-02-22 07:28:40 51°13.612 2°56.043 -999 2.688473 21.402428 -1.421728
2006-02-22 07:28:46 51°13.615 2°56.034 -999 2.688473 21.402428 -1.421728
2006-02-22 07:28:50 51°13.616 2°56.028 -999 2.688473 21.402428 -1.421728
2006-02-22 07:28:55 51°13.619 2°56.02 -999 2.688369 21.401991 -1.421728
2006-02-22 07:29:00 51°13.621 2°56.012 -999 2.688369 21.401991 -1.421728
2006-02-22 07:29:05 51°13.624 2°56.003 -999 2.688369 21.401991 -1.421728
2006-02-22 07:29:10 51°13.626 2°55.995 -999 2.688369 21.402459 -1.421728
2006-02-22 07:29:16 51°13.63 2°55.984 -999 2.688369 21.402459 -1.421728
2006-02-22 07:29:20 51°13.632 2°55.976 -999 2.688369 21.402459 -1.421728
2006-02-22 07:29:25 51°13.635 2°55.967 -999 2.688369 21.402459 -1.421728
2006-02-22 07:29:30 51°13.639 2°55.958 -999 2.688369 21.402926 -1.421728
2006-02-22 07:29:35 51°13.642 2°55.948 -999 2.688266 21.402022 -1.421728
2006-02-22 07:29:40 51°13.645 2°55.938 -999 2.688266 21.402022 -1.421728
2006-02-22 07:29:45 51°13.649 2°55.929 -999 2.688266 21.402022 -1.421728
2006-02-22 07:29:50 51°13.652 2°55.919 -999 2.688266 21.40249 -1.421728
2006-02-22 07:29:56 51°13.657 2°55.907 -999 2.688266 21.40249 -1.421728
2006-02-22 07:30:00 51°13.66 2°55.899 -999 2.688163 21.401585 -1.421728
2006-02-22 07:30:05 51°13.664 2°55.889 -999 2.688163 21.401585 -1.421728
2006-02-22 07:30:10 51°13.668 2°55.879 -999 2.688163 21.402053 -1.421728
2006-02-22 07:30:15 51°13.671 2°55.869 -999 2.688163 21.402053 -1.421728
2006-02-22 07:30:20 51°13.675 2°55.858 -999 2.688163 21.402053 -1.421728
2006-02-22 07:30:26 51°13.68 2°55.846 -999 2.688473 21.404766 -1.421728
2006-02-22 07:30:30 51°13.683 2°55.838 -999 1.957041 15.11018 -1.084634
2006-02-22 07:30:35 51°13.687 2°55.827 -999 2.408143 18.968334 -1.185762
2006-02-22 07:30:40 51°13.691 2°55.817 -999 2.112694 16.253475 -0.612702
2006-02-22 07:30:46 51°13.695 2°55.805 -999 2.582854 20.63274 -0.343027
2006-02-22 07:30:50 51°13.698 2°55.797 -999 2.582854 20.63274 -0.343027
2006-02-22 07:30:55 51°13.702 2°55.786 -999 2.306322 19.451845 -0.309317
2006-02-22 07:31:00 51°13.705 2°55.776 -999 1.846034 16.057698 0.465999
2006-02-22 07:31:06 51°13.708 2°55.765 -999 1.963478 17.829305 0.533418
2006-02-22 07:31:10 51°13.71 2°55.757 -999 2.163334 20.474847 0.567127
2006-02-22 07:31:15 51°13.712 2°55.749 -999 2.163334 20.474847 0.567127
2006-02-22 07:31:20 51°13.714 2°55.74 -999 2.244087 21.746659 0.567127
2006-02-22 07:31:25 51°13.715 2°55.732 -999 2.270526 22.304992 0.600836
2006-02-22 07:31:30 51°13.717 2°55.725 -999 2.281682 22.601135 0.567127
2006-02-22 07:31:35 51°13.718 2°55.719 -999 2.290978 22.824819 0.499708
2006-02-22 07:31:40 51°13.719 2°55.715 -999 2.286125 22.858982 0.432289
2006-02-22 07:31:44 51°13.719 2°55.713 -999 2.286125 22.858982 0.432289
2006-02-22 07:31:50 51°13.72 2°55.713 -999 2.300275 23.078985 0.39858
2006-02-22 07:31:55 51°13.72 2°55.715 -999 2.305955 23.186222 0.364871
2006-02-22 07:32:00 51°13.721 2°55.719 -999 2.305026 23.215595 0.364871
2006-02-22 07:32:05 51°13.722 2°55.722 -999 2.298623 23.16915 0.364871
2006-02-22 07:32:10 51°13.723 2°55.725 -999 2.293356 23.137198 0.364871
2006-02-22 07:32:15 51°13.723 2°55.726 -999 2.298004 23.214829 0.364871
2006-02-22 07:32:20 51°13.723 2°55.726 -999 2.298004 23.214829 0.364871
2006-02-22 07:32:25 51°13.723 2°55.724 -999 2.289846 23.144116 0.331161
2006-02-22 07:32:30 51°13.723 2°55.722 -999 2.269088 22.921883 0.331161
2006-02-22 07:32:35 51°13.722 2°55.72 -999 2.254423 22.769086 0.331161
2006-02-22 07:32:40 51°13.721 2°55.716 -999 2.241722 22.643914 0.331161
2006-02-22 07:32:44 51°13.719 2°55.714 -999 2.227471 22.491062 0.331161
2006-02-22 07:32:50 51°13.718 2°55.71 -999 2.227471 22.491062 0.331161
2006-02-22 07:32:55 51°13.717 2°55.707 -999 2.212498 22.328341 0.331161
2006-02-22 07:33:00 51°13.717 2°55.706 -999 2.206509 22.266787 0.331161
2006-02-22 07:33:06 51°13.717 2°55.704 -999 2.201243 22.221632 0.364871
2006-02-22 07:33:10 51°13.717 2°55.704 -999 2.206406 22.28189 0.39858
2006-02-22 07:33:15 51°13.717 2°55.703 -999 2.206406 22.28189 0.39858
2006-02-22 07:33:20 51°13.718 2°55.704 -999 2.21952 22.433988 0.432289
2006-02-22 07:33:24 51°13.719 2°55.704 -999 2.22995 22.559212 0.465999
2006-02-22 07:33:30 51°13.722 2°55.704 -999 2.246576 22.755928 0.499708
2006-02-22 07:33:35 51°13.724 2°55.704 -999 2.252772 22.834625 0.533418
2006-02-22 07:33:40 51°13.726 2°55.704 -999 2.262169 22.945599 0.533418
2006-02-22 07:33:44 51°13.729 2°55.704 -999 2.262169 22.945599 0.533418
2006-02-22 07:33:50 51°13.733 2°55.702 -999 2.257935 22.903291 0.533418
2006-02-22 07:33:55 51°13.736 2°55.7 -999 2.248332 22.798707 0.533418
2006-02-22 07:34:00 51°13.74 2°55.697 -999 2.241516 22.724425 0.533418
2006-02-22 07:34:05 51°13.745 2°55.694 -999 2.227369 22.569536 0.499708
2006-02-22 07:34:10 51°13.75 2°55.69 -999 2.213532 22.417521 0.499708
2006-02-22 07:34:15 51°13.756 2°55.686 -999 2.199695 22.264956 0.499708
2006-02-22 07:34:20 51°13.762 2°55.682 -999 2.199695 22.264956 0.499708
2006-02-22 07:34:24 51°13.767 2°55.678 -999 2.184517 22.100889 0.499708
2006-02-22 07:34:30 51°13.775 2°55.671 -999 2.178528 22.039168 0.499708
2006-02-22 07:34:36 51°13.784 2°55.665 -999 2.175327 22.0057 0.533418
2006-02-22 07:34:40 51°13.79 2°55.661 -999 2.173985 21.993431 0.567127
2006-02-22 07:34:45 51°13.798 2°55.655 -999 2.180077 22.063405 0.735674
2006-02-22 07:34:50 51°13.806 2°55.65 -999 2.180077 22.063405 0.735674
2006-02-22 07:34:55 51°13.815 2°55.644 -999 2.19732 22.257559 0.93793
2006-02-22 07:35:00 51°13.823 2°55.638 -999 2.204755 22.345167 1.039059
2006-02-22 07:35:05 51°13.832 2°55.631 -999 2.211777 22.427612 1.039059
2006-02-22 07:35:10 51°13.841 2°55.624 -999 2.201657 22.316718 0.93793
2006-02-22 07:35:15 51°13.85 2°55.618 -999 2.201657 22.316718 0.93793
2006-02-22 07:35:20 51°13.86 2°55.611 -999 2.196494 22.259493 0.904221
2006-02-22 07:35:25 51°13.869 2°55.603 -999 2.19319 22.22353 0.836802
2006-02-22 07:35:30 51°13.878 2°55.596 -999 2.196495 22.265366 0.769383
2006-02-22 07:35:35 51°13.888 2°55.588 -999 2.206924 22.381664 0.668255
2006-02-22 07:35:40 51°13.898 2°55.581 -999 2.209299 22.409322 0.600836
2006-02-22 07:35:46 51°13.909 2°55.572 -999 2.208266 22.399837 0.533418
2006-02-22 07:35:50 51°13.917 2°55.565 -999 2.208266 22.399837 0.533418
2006-02-22 07:35:55 51°13.927 2°55.558 -999 2.211674 22.441593 0.465999
2006-02-22 07:36:00 51°13.937 2°55.55 -999 2.221174 22.547054 0.39858
2006-02-22 07:36:04 51°13.945 2°55.544 -999 2.231603 22.668216 0.364871
2006-02-22 07:36:10 51°13.957 2°55.535 -999 2.241104 22.778498 0.331161
2006-02-22 07:36:15 51°13.968 2°55.527 -999 2.267127 23.072172 0.331161
2006-02-22 07:36:20 51°13.978 2°55.52 -999 2.267127 23.072172 0.331161
2006-02-22 07:36:25 51°13.988 2°55.512 -999 2.293875 23.375122 0.331161
2006-02-22 07:36:30 51°13.999 2°55.505 -999 2.327132 23.754854 0.331161
2006-02-22 07:36:35 51°14.009 2°55.497 -999 2.3607 24.137592 0.331161
2006-02-22 07:36:40 51°14.019 2°55.49 -999 2.37826 24.339424 0.297452
2006-02-22 07:36:45 51°14.03 2°55.483 -999 2.37826 24.339424 0.297452
2006-02-22 07:36:50 51°14.04 2°55.476 -999 2.390139 24.475584 0.297452
2006-02-22 07:36:55 51°14.05 2°55.469 -999 2.388796 24.462667 0.263742
2006-02-22 07:37:00 51°14.06 2°55.463 -999 2.384561 24.411546 0.230033
2006-02-22 07:37:05 51°14.07 2°55.456 -999 2.378157 24.335406 0.196324
2006-02-22 07:37:10 51°14.079 2°55.449 -999 2.355329 24.078131 0.162614
2006-02-22 07:37:15 51°14.089 2°55.443 -999 2.355329 24.078131 0.162614
2006-02-22 07:37:20 51°14.099 2°55.436 -999 2.332916 23.825829 0.128905
2006-02-22 07:37:24 51°14.107 2°55.43 -999 2.318869 23.668053 0.061486
2006-02-22 07:37:30 51°14.119 2°55.422 -999 2.322174 23.705697 0.061486
2006-02-22 07:37:35 51°14.129 2°55.414 -999 2.337047 23.878364 -0.005933
2006-02-22 07:37:40 51°14.14 2°55.407 -999 2.353367 24.068169 -0.039642
2006-02-22 07:37:45 51°14.15 2°55.399 -999 2.371443 24.280091 -0.073352
2006-02-22 07:37:50 51°14.16 2°55.391 -999 2.371443 24.280091 -0.073352
2006-02-22 07:37:55 51°14.171 2°55.382 -999 2.379397 24.373653 -0.107061
2006-02-22 07:38:00 51°14.181 2°55.372 -999 2.384975 24.441318 -0.14077
2006-02-22 07:38:05 51°14.191 2°55.362 -999 2.386731 24.466081 -0.17448
2006-02-22 07:38:10 51°14.201 2°55.35 -999 2.389623 24.500024 -0.17448
2006-02-22 07:38:15 51°14.211 2°55.339 -999 2.391792 24.524404 -0.208189
2006-02-22 07:38:20 51°14.22 2°55.327 -999 2.391792 24.524404 -0.208189
2006-02-22 07:38:25 51°14.229 2°55.314 -999 2.399023 24.604969 -0.208189
2006-02-22 07:38:30 51°14.238 2°55.301 -999 2.385801 24.456355 0.128905
2006-02-22 07:38:36 51°14.248 2°55.284 -999 2.3544 24.107376 0.027777
2006-02-22 07:38:40 51°14.254 2°55.272 -999 2.329508 23.831805 0.095195
2006-02-22 07:38:44 51°14.261 2°55.26 -999 2.329508 23.831805 0.095195
2006-02-22 07:38:50 51°14.271 2°55.241 -999 2.319179 23.716798 -0.039642
2006-02-22 07:38:55 51°14.279 2°55.226 -999 2.313292 23.650178 -0.14077
2006-02-22 07:39:00 51°14.287 2°55.209 -999 2.301828 23.518404 -0.241899
2006-02-22 07:39:04 51°14.293 2°55.196 -999 2.281999 23.28983 -0.309317
2006-02-22 07:39:10 51°14.303 2°55.176 -999 2.270949 23.160277 -0.343027
2006-02-22 07:39:15 51°14.311 2°55.159 -999 2.270949 23.160277 -0.343027
2006-02-22 07:39:20 51°14.319 2°55.142 -999 2.273737 23.18936 -0.343027
2006-02-22 07:39:24 51°14.325 2°55.128 -999 2.311227 23.610376 -0.343027
2006-02-22 07:39:30 51°14.334 2°55.107 -999 2.356052 24.122369 -0.376736
2006-02-22 07:39:35 51°14.342 2°55.09 -999 2.404808 24.682366 -0.376736
2006-02-22 07:39:40 51°14.35 2°55.071 -999 2.439312 25.078358 -0.410446
2006-02-22 07:39:44 51°14.355 2°55.056 -999 2.477434 25.519184 -0.410446
2006-02-22 07:39:50 51°14.363 2°55.032 -999 2.477434 25.519184 -0.410446
2006-02-22 07:39:55 51°14.369 2°55.011 -999 2.508947 25.887876 -0.410446
2006-02-22 07:39:59 51°14.374 2°54.994 -999 2.544388 26.299768 -0.444155
2006-02-22 07:40:04 51°14.379 2°54.973 -999 2.558751 26.469126 -0.444155
2006-02-22 07:40:10 51°14.385 2°54.947 -999 2.556478 26.444075 -0.444155
2006-02-22 07:40:15 51°14.389 2°54.924 -999 2.556478 26.444075 -0.444155
2006-02-22 07:40:20 51°14.393 2°54.902 -999 2.532092 26.162538 -0.444155
2006-02-22 07:40:25 51°14.396 2°54.879 -999 2.51153 25.924014 -0.444155
2006-02-22 07:40:30 51°14.4 2°54.855 -999 2.517316 25.988825 -0.444155
2006-02-22 07:40:35 51°14.402 2°54.833 -999 2.538601 26.236409 -0.477864
2006-02-22 07:40:40 51°14.405 2°54.809 -999 2.553171 26.411182 -0.511574
2006-02-22 07:40:44 51°14.409 2°54.79 -999 2.553171 26.411182 -0.511574
2006-02-22 07:40:50 51°14.413 2°54.762 -999 2.602877 26.990211 -0.545283
2006-02-22 07:40:55 51°14.418 2°54.739 -999 2.637912 27.401182 -0.545283
2006-02-22 07:41:00 51°14.422 2°54.714 -999 2.666127 27.734342 -0.612702
2006-02-22 07:41:05 51°14.426 2°54.691 -999 2.685766 27.969914 -0.646411
2006-02-22 07:41:10 51°14.43 2°54.665 -999 2.70189 28.160581 -0.680121
2006-02-22 07:41:15 51°14.435 2°54.641 -999 2.72215 28.398964 -0.680121
2006-02-22 07:41:20 51°14.44 2°54.617 -999 2.72215 28.398964 -0.680121
2006-02-22 07:41:24 51°14.443 2°54.597 -999 2.735795 28.565859 -0.71383
2006-02-22 07:41:30 51°14.447 2°54.567 -999 2.737346 28.588762 -0.71383
2006-02-22 07:41:35 51°14.45 2°54.542 -999 2.735175 28.565491 -0.71383
2006-02-22 07:41:40 51°14.453 2°54.516 -999 2.722254 28.416121 -0.74754
2006-02-22 07:41:44 51°14.454 2°54.496 -999 2.747167 28.707665 -0.814958
2006-02-22 07:41:50 51°14.456 2°54.465 -999 2.747167 28.707665 -0.814958
2006-02-22 07:41:55 51°14.457 2°54.44 -999 2.788002 29.191003 -0.848668
2006-02-22 07:42:00 51°14.456 2°54.414 -999 2.82336 29.608024 -0.882377
2006-02-22 07:42:05 51°14.454 2°54.388 -999 2.842178 29.833606 -0.882377
2006-02-22 07:42:10 51°14.452 2°54.363 -999 2.857067 30.013998 -0.916087
2006-02-22 07:42:15 51°14.449 2°54.338 -999 2.857067 30.013998 -0.916087
2006-02-22 07:42:20 51°14.444 2°54.315 -999 2.864409 30.103527 -0.916087
2006-02-22 07:42:25 51°14.438 2°54.292 -999 2.874128 30.218905 -0.916087
2006-02-22 07:42:30 51°14.429 2°54.271 -999 2.878471 30.271074 -0.916087
2006-02-22 07:42:35 51°14.422 2°54.248 -999 2.880539 30.295067 -0.916087
2006-02-22 07:42:40 51°14.414 2°54.227 -999 2.882711 30.32386 -0.916087
2006-02-22 07:42:44 51°14.407 2°54.209 -999 2.882711 30.32386 -0.916087
2006-02-22 07:42:50 51°14.398 2°54.182 -999 2.883745 30.33676 -0.916087
2006-02-22 07:42:55 51°14.39 2°54.161 -999 2.883435 30.33316 -0.916087
2006-02-22 07:43:00 51°14.382 2°54.138 -999 2.882814 30.323261 -0.916087
2006-02-22 07:43:05 51°14.374 2°54.116 -999 2.884676 30.346661 -0.916087
2006-02-22 07:43:10 51°14.366 2°54.093 -999 2.882504 30.323259 -0.916087
2006-02-22 07:43:15 51°14.358 2°54.07 -999 2.887054 30.375166 -0.916087
2006-02-22 07:43:20 51°14.349 2°54.048 -999 2.887054 30.375166 -0.916087
2006-02-22 07:43:25 51°14.341 2°54.025 -999 2.877541 30.263869 -0.916087
2006-02-22 07:43:30 51°14.333 2°54.002 -999 2.83432 29.764736 -0.916087
2006-02-22 07:43:35 51°14.325 2°53.979 -999 2.840834 29.840163 -0.916087
2006-02-22 07:43:40 51°14.316 2°53.956 -999 2.83887 29.816528 -0.916087
2006-02-22 07:43:44 51°14.31 2°53.937 -999 2.834424 29.765933 -0.916087
2006-02-22 07:43:50 51°14.298 2°53.91 -999 2.834424 29.765933 -0.916087
2006-02-22 07:43:55 51°14.292 2°53.886 -999 2.841558 29.851202 -0.916087
2006-02-22 07:44:00 51°14.281 2°53.864 -999 2.814469 29.5394 -0.916087
2006-02-22 07:44:05 51°14.275 2°53.839 -999 2.886951 30.378472 -0.916087
2006-02-22 07:44:10 51°14.265 2°53.818 -999 2.889536 30.41029 -0.916087
2006-02-22 07:44:15 51°14.257 2°53.793 -999 2.889536 30.41029 -0.916087
2006-02-22 07:44:20 51°14.248 2°53.771 -999 2.889639 30.410588 -0.916087
2006-02-22 07:44:25 51°14.239 2°53.749 -999 2.889329 30.406084 -0.916087
2006-02-22 07:44:30 51°14.231 2°53.725 -999 2.889432 30.406382 -0.916087
2006-02-22 07:44:35 51°14.221 2°53.704 -999 2.889226 30.402177 -0.916087
2006-02-22 07:44:40 51°14.214 2°53.678 -999 2.890156 30.417494 -0.916087
2006-02-22 07:44:45 51°14.205 2°53.656 -999 2.890673 30.426206 -0.916087
2006-02-22 07:44:50 51°14.196 2°53.633 -999 2.890673 30.426206 -0.916087
2006-02-22 07:44:55 51°14.187 2°53.61 -999 2.891294 30.437025 -0.916087
2006-02-22 07:45:00 51°14.178 2°53.586 -999 2.89088 30.432221 -0.916087
2006-02-22 07:45:05 51°14.17 2°53.563 -999 2.89026 30.422306 -0.916087
2006-02-22 07:45:10 51°14.161 2°53.54 -999 2.889536 30.411192 -0.916087
2006-02-22 07:45:15 51°14.152 2°53.516 -999 2.889743 30.414496 -0.916087
2006-02-22 07:45:20 51°14.143 2°53.493 -999 2.889743 30.414496 -0.916087
2006-02-22 07:45:24 51°14.136 2°53.474 -999 2.89057 30.428617 -0.916087
2006-02-22 07:45:30 51°14.126 2°53.445 -999 2.89119 30.440341 -0.916087
2006-02-22 07:45:35 51°14.118 2°53.421 -999 2.890777 30.43644 -0.916087
2006-02-22 07:45:40 51°14.11 2°53.396 -999 2.890467 30.433739 -0.916087
2006-02-22 07:45:45 51°14.103 2°53.372 -999 2.890467 30.433739 -0.916087
2006-02-22 07:45:50 51°14.094 2°53.348 -999 2.890156 30.430136 -0.916087
2006-02-22 07:45:55 51°14.088 2°53.323 -999 2.890156 30.431943 -0.916087
2006-02-22 07:46:00 51°14.079 2°53.3 -999 2.890053 30.430741 -0.916087
2006-02-22 07:46:05 51°14.07 2°53.277 -999 2.890363 30.43796 -0.916087
2006-02-22 07:46:10 51°14.062 2°53.253 -999 2.889743 30.431655 -0.916087
2006-02-22 07:46:15 51°14.054 2°53.229 -999 2.889226 30.424744 -0.916087
2006-02-22 07:46:20 51°14.046 2°53.205 -999 2.889226 30.424744 -0.916087
2006-02-22 07:46:25 51°14.038 2°53.181 -999 2.889226 30.426551 -0.916087
2006-02-22 07:46:30 51°14.03 2°53.157 -999 2.889122 30.427157 -0.916087
2006-02-22 07:46:35 51°14.02 2°53.134 -999 2.888605 30.420246 -0.916087
2006-02-22 07:46:39 51°14.014 2°53.114 -999 2.887571 30.406426 -0.916087
2006-02-22 07:46:44 51°14.005 2°53.092 -999 2.887985 30.413037 -0.916087
2006-02-22 07:46:50 51°13.995 2°53.061 -999 2.887985 30.413037 -0.916087
2006-02-22 07:46:55 51°13.987 2°53.039 -999 2.887571 30.409134 -0.916087
2006-02-22 07:46:59 51°13.979 2°53.019 -999 2.887571 30.410037 -0.916087
2006-02-22 07:47:04 51°13.971 2°52.995 -999 2.887468 30.410642 -0.916087
2006-02-22 07:47:10 51°13.961 2°52.966 -999 2.886641 30.400127 -0.916087
2006-02-22 07:47:15 51°13.951 2°52.944 -999 2.886537 30.400732 -0.916087
2006-02-22 07:47:19 51°13.944 2°52.924 -999 2.886537 30.400732 -0.916087
2006-02-22 07:47:24 51°13.937 2°52.9 -999 2.88571 30.390217 -0.916087
2006-02-22 07:47:30 51°13.926 2°52.873 -999 2.8854 30.386613 -0.916087
2006-02-22 07:47:34 51°13.919 2°52.854 -999 2.885296 30.386314 -0.916087
2006-02-22 07:47:40 51°13.909 2°52.825 -999 2.885193 30.385113 -0.916087
2006-02-22 07:47:44 51°13.902 2°52.806 -999 2.885193 30.385113 -0.916087
2006-02-22 07:47:50 51°13.893 2°52.778 -999 2.8854 30.390223 -0.916087
2006-02-22 07:47:55 51°13.884 2°52.754 -999 2.884573 30.381513 -0.916087
2006-02-22 07:47:59 51°13.878 2°52.734 -999 2.88478 30.385722 -0.848668
2006-02-22 07:48:05 51°13.867 2°52.706 -999 2.884573 30.382416 -0.882377
2006-02-22 07:48:08 51°13.862 2°52.692 -999 2.884366 30.38272 -0.882377
2006-02-22 07:48:15 51°13.849 2°52.659 -999 2.884573 30.387832 -0.916087
2006-02-22 07:48:19 51°13.842 2°52.64 -999 2.884573 30.387832 -0.916087
2006-02-22 07:48:24 51°13.833 2°52.616 -999 2.884159 30.383927 -0.916087
2006-02-22 07:48:29 51°13.825 2°52.592 -999 2.883642 30.377016 -0.916087
2006-02-22 07:48:34 51°13.815 2°52.569 -999 2.883332 30.373411 -0.916087
2006-02-22 07:48:39 51°13.807 2°52.545 -999 2.883022 30.369806 -0.916087
2006-02-22 07:48:44 51°13.797 2°52.523 -999 2.882505 30.363797 -0.916087
2006-02-22 07:48:49 51°13.789 2°52.497 -999 2.882505 30.363797 -0.916087
2006-02-22 07:48:54 51°13.781 2°52.474 -999 2.882298 30.362296 -0.916087
2006-02-22 07:48:59 51°13.772 2°52.45 -999 2.882505 30.364699 -0.916087
2006-02-22 07:49:05 51°13.761 2°52.421 -999 2.882194 30.361094 -0.916087
2006-02-22 07:49:10 51°13.754 2°52.397 -999 2.882091 30.359893 -0.916087
2006-02-22 07:49:15 51°13.745 2°52.373 -999 2.882091 30.359893 -0.882377
2006-02-22 07:49:19 51°13.738 2°52.354 -999 2.882091 30.359893 -0.882377
2006-02-22 07:49:25 51°13.728 2°52.325 -999 2.881574 30.352983 -0.882377
2006-02-22 07:49:28 51°13.722 2°52.311 -999 2.881264 30.35028 -0.882377
2006-02-22 07:49:34 51°13.713 2°52.281 -999 2.881264 30.351181 -0.916087
2006-02-22 07:49:39 51°13.703 2°52.258 -999 2.881057 30.350582 -0.916087
2006-02-22 07:49:44 51°13.695 2°52.232 -999 2.881057 30.350582 -0.916087
2006-02-22 07:49:50 51°13.683 2°52.205 -999 2.880954 30.350282 -0.882377
2006-02-22 07:49:55 51°13.674 2°52.181 -999 2.88085 30.351786 -0.916087
2006-02-22 07:49:59 51°13.668 2°52.161 -999 2.88054 30.346377 -0.916087
2006-02-22 07:50:05 51°13.657 2°52.132 -999 2.880333 30.343071 -0.916087
2006-02-22 07:50:08 51°13.653 2°52.117 -999 2.88054 30.346377 -0.916087
2006-02-22 07:50:15 51°13.639 2°52.086 -999 2.88054 30.346377 -0.916087
2006-02-22 07:50:20 51°13.63 2°52.061 -999 2.88054 30.346377 -0.916087
2006-02-22 07:50:24 51°13.624 2°52.042 -999 2.88085 30.350884 -0.916087
2006-02-22 07:50:30 51°13.614 2°52.015 -999 2.881367 30.357795 -0.916087
2006-02-22 07:50:35 51°13.605 2°51.992 -999 2.881471 30.360801 -0.916087
2006-02-22 07:50:39 51°13.598 2°51.972 -999 2.881367 30.358697 -0.916087
2006-02-22 07:50:44 51°13.59 2°51.948 -999 2.881471 30.358997 -0.916087
2006-02-22 07:50:49 51°13.581 2°51.927 -999 2.881471 30.358997 -0.916087
2006-02-22 07:50:54 51°13.572 2°51.903 -999 2.881471 30.357193 -0.916087
2006-02-22 07:51:00 51°13.561 2°51.875 -999 2.881781 30.3617 -0.916087
2006-02-22 07:51:04 51°13.555 2°51.855 -999 2.881471 30.360801 -0.916087
2006-02-22 07:51:10 51°13.544 2°51.828 -999 2.881367 30.360502 -0.916087
2006-02-22 07:51:15 51°13.537 2°51.803 -999 2.881367 30.360502 -0.916087
2006-02-22 07:51:19 51°13.53 2°51.785 -999 2.881057 30.357798 -0.916087
2006-02-22 07:51:24 51°13.522 2°51.762 -999 2.880437 30.349684 -0.949796
2006-02-22 07:51:30 51°13.511 2°51.734 -999 2.880437 30.348782 -0.916087
2006-02-22 07:51:35 51°13.503 2°51.71 -999 2.880747 30.354192 -0.916087
2006-02-22 07:51:39 51°13.496 2°51.691 -999 2.880126 30.34698 -0.916087
2006-02-22 07:51:44 51°13.487 2°51.67 -999 2.879609 30.342774 -0.916087
2006-02-22 07:51:50 51°13.476 2°51.641 -999 2.879609 30.342774 -0.916087
2006-02-22 07:51:55 51°13.465 2°51.619 -999 2.878886 30.335262 -0.916087
2006-02-22 07:51:59 51°13.459 2°51.6 -999 2.878058 30.326548 -0.916087
2006-02-22 07:52:04 51°13.45 2°51.578 -999 2.860894 30.125322 -0.916087
2006-02-22 07:52:10 51°13.44 2°51.549 -999 2.876611 30.307019 -0.916087
2006-02-22 07:52:15 51°13.429 2°51.527 -999 2.876301 30.303414 -0.882377
2006-02-22 07:52:19 51°13.423 2°51.508 -999 2.876301 30.303414 -0.882377
2006-02-22 07:52:24 51°13.413 2°51.487 -999 2.87599 30.298008 -0.882377
2006-02-22 07:52:29 51°13.405 2°51.462 -999 2.87599 30.297107 -0.882377
2006-02-22 07:52:35 51°13.394 2°51.434 -999 2.875887 30.295005 -0.882377
2006-02-22 07:52:40 51°13.386 2°51.41 -999 2.87568 30.291702 -0.882377
2006-02-22 07:52:44 51°13.38 2°51.392 -999 2.875577 30.2914 -0.916087
2006-02-22 07:52:50 51°13.368 2°51.365 -999 2.875577 30.2914 -0.916087
2006-02-22 07:52:54 51°13.362 2°51.345 -999 2.875266 30.285996 -0.882377
2006-02-22 07:53:00 51°13.35 2°51.318 -999 2.87506 30.283593 -0.882377
2006-02-22 07:53:04 51°13.343 2°51.299 -999 2.874749 30.280888 -0.882377
2006-02-22 07:53:08 51°13.336 2°51.281 -999 2.874439 30.279984 -0.882377
2006-02-22 07:53:14 51°13.326 2°51.253 -999 2.874439 30.279984 -0.882377
2006-02-22 07:53:19 51°13.316 2°51.228 -999 2.874026 30.276077 -0.882377
2006-02-22 07:53:25 51°13.308 2°51.199 -999 2.873405 30.268868 -0.882377
2006-02-22 07:53:29 51°13.299 2°51.182 -999 2.872578 30.258357 -0.916087
2006-02-22 07:53:35 51°13.292 2°51.151 -999 2.872785 30.261659 -0.916087
2006-02-22 07:53:39 51°13.283 2°51.134 -999 2.872681 30.259558 -0.882377
2006-02-22 07:53:44 51°13.277 2°51.109 -999 2.871958 30.252047 -0.882377
2006-02-22 07:53:50 51°13.264 2°51.081 -999 2.871958 30.252047 -0.882377
2006-02-22 07:53:54 51°13.259 2°51.061 -999 2.87082 30.237933 -0.882377
2006-02-22 07:53:59 51°13.249 2°51.039 -999 2.870407 30.234925 -0.882377
2006-02-22 07:54:04 51°13.24 2°51.015 -999 2.86989 30.228918 -0.882377
2006-02-22 07:54:10 51°13.23 2°50.988 -999 2.865857 30.182071 -0.882377
2006-02-22 07:54:14 51°13.222 2°50.969 -999 2.866788 30.193779 -0.916087
2006-02-22 07:54:20 51°13.214 2°50.938 -999 2.866788 30.193779 -0.916087
2006-02-22 07:54:24 51°13.206 2°50.919 -999 2.867925 30.20789 -0.882377
2006-02-22 07:54:30 51°13.197 2°50.889 -999 2.864306 30.164952 -0.916087
2006-02-22 07:54:35 51°13.188 2°50.866 -999 2.867718 30.204589 -0.916087
2006-02-22 07:54:40 51°13.18 2°50.841 -999 2.866994 30.197078 -0.882377
2006-02-22 07:54:44 51°13.173 2°50.823 -999 2.866994 30.197078 -0.882377
2006-02-22 07:54:49 51°13.165 2°50.799 -999 2.864823 30.172751 -0.916087
2006-02-22 07:54:55 51°13.154 2°50.772 -999 2.865857 30.183865 -0.916087
2006-02-22 07:55:00 51°13.145 2°50.748 -999 2.864926 30.174849 -0.882377
2006-02-22 07:55:04 51°13.138 2°50.729 -999 2.86565 30.184155 -0.916087
2006-02-22 07:55:10 51°13.126 2°50.701 -999 2.864513 30.171838 -0.882377
2006-02-22 07:55:14 51°13.121 2°50.681 -999 2.864513 30.171838 -0.882377
2006-02-22 07:55:20 51°13.109 2°50.654 -999 2.862962 30.155613 -0.882377
2006-02-22 07:55:24 51°13.103 2°50.634 -999 2.862548 30.149912 -0.882377
2006-02-22 07:55:29 51°13.093 2°50.61 -999 2.859963 30.119886 -0.882377
2006-02-22 07:55:34 51°13.086 2°50.585 -999 2.859136 30.109383 -0.882377
2006-02-22 07:55:40 51°13.074 2°50.558 -999 2.861204 30.133402 -0.882377
2006-02-22 07:55:44 51°13.068 2°50.538 -999 2.863169 30.155326 -0.882377
2006-02-22 07:55:48 51°13.061 2°50.52 -999 2.863169 30.155326 -0.882377
2006-02-22 07:55:55 51°13.048 2°50.487 -999 2.860377 30.123794 -0.882377
2006-02-22 07:55:59 51°13.04 2°50.468 -999 2.859136 30.108488 -0.882377
2006-02-22 07:56:05 51°13.031 2°50.439 -999 2.863169 30.155326 -0.882377
2006-02-22 07:56:09 51°13.023 2°50.421 -999 2.861824 30.140608 -0.882377
2006-02-22 07:56:15 51°13.013 2°50.391 -999 2.863582 30.162821 -0.882377
2006-02-22 07:56:19 51°13.007 2°50.372 -999 2.863582 30.162821 -0.882377
2006-02-22 07:56:24 51°12.998 2°50.349 -999 2.862341 30.14751 -0.882377
2006-02-22 07:56:30 51°12.987 2°50.319 -999 2.862755 30.154107 -0.882377
2006-02-22 07:56:35 51°12.979 2°50.296 -999 2.863479 30.162516 -0.916087
2006-02-22 07:56:39 51°12.972 2°50.277 -999 2.862238 30.148101 -0.916087
2006-02-22 07:56:44 51°12.963 2°50.254 -999 2.862238 30.148101 -0.916087
2006-02-22 07:56:49 51°12.955 2°50.229 -999 2.861618 30.140894 -0.916087
2006-02-22 07:56:55 51°12.943 2°50.203 -999 2.862135 30.147796 -0.916087
2006-02-22 07:57:00 51°12.935 2°50.178 -999 2.865237 30.185631 -0.916087
2006-02-22 07:57:04 51°12.928 2°50.16 -999 2.862135 30.149589 -0.916087
2006-02-22 07:57:09 51°12.918 2°50.138 -999 2.862135 30.148693 -0.916087
2006-02-22 07:57:14 51°12.91 2°50.113 -999 2.865547 30.189235 -0.882377
2006-02-22 07:57:20 51°12.899 2°50.085 -999 2.865547 30.189235 -0.882377
2006-02-22 07:57:24 51°12.892 2°50.066 -999 2.86596 30.194041 -0.916087
2006-02-22 07:57:29 51°12.884 2°50.041 -999 2.866167 30.197342 -0.916087
2006-02-22 07:57:34 51°12.876 2°50.018 -999 2.866581 30.20125 -0.916087
2006-02-22 07:57:40 51°12.864 2°49.991 -999 2.866994 30.206057 -0.916087
2006-02-22 07:57:44 51°12.858 2°49.972 -999 2.867718 30.21357 -0.916087
2006-02-22 07:57:49 51°12.848 2°49.95 -999 2.867718 30.21357 -0.916087
2006-02-22 07:57:55 51°12.837 2°49.922 -999 2.867511 30.212065 -0.916087
2006-02-22 07:58:00 51°12.828 2°49.899 -999 2.868339 30.222576 -0.916087
2006-02-22 07:58:04 51°12.821 2°49.88 -999 2.866684 30.204248 -0.916087
2006-02-22 07:58:10 51°12.81 2°49.852 -999 2.866994 30.207853 -0.916087
2006-02-22 07:58:14 51°12.803 2°49.832 -999 2.86596 30.195837 -0.916087
2006-02-22 07:58:19 51°12.794 2°49.809 -999 2.86596 30.195837 -0.916087
2006-02-22 07:58:24 51°12.785 2°49.784 -999 2.867925 30.21777 -0.916087
2006-02-22 07:58:30 51°12.776 2°49.755 -999 2.864926 30.183821 -0.916087
2006-02-22 07:58:34 51°12.768 2°49.736 -999 2.867098 30.208156 -0.916087
2006-02-22 07:58:40 51°12.759 2°49.707 -999 2.86596 30.194041 -0.916087
2006-02-22 07:58:44 51°12.751 2°49.688 -999 2.86596 30.194041 -0.916087
2006-02-22 07:58:50 51°12.741 2°49.659 -999 2.86596 30.194041 -0.916087
2006-02-22 07:58:54 51°12.734 2°49.642 -999 2.864823 30.179927 -0.916087
2006-02-22 07:58:59 51°12.725 2°49.619 -999 2.867511 30.211166 -0.916087
2006-02-22 07:59:04 51°12.715 2°49.596 -999 2.868235 30.221375 -0.916087
2006-02-22 07:59:10 51°12.704 2°49.568 -999 2.868339 30.221678 -0.916087
2006-02-22 07:59:15 51°12.695 2°49.544 -999 2.868132 30.220173 -0.882377
2006-02-22 07:59:19 51°12.686 2°49.526 -999 2.868132 30.220173 -0.882377
2006-02-22 07:59:25 51°12.676 2°49.496 -999 2.865857 30.193737 -0.882377
2006-02-22 07:59:28 51°12.672 2°49.482 -999 2.865754 30.192536 -0.882377
2006-02-22 07:59:35 51°12.658 2°49.45 -999 2.866994 30.206955 -0.882377
2006-02-22 07:59:40 51°12.65 2°49.425 -999 2.866788 30.204552 -0.882377
2006-02-22 07:59:44 51°12.642 2°49.406 -999 2.866064 30.19614 -0.882377
2006-02-22 07:59:50 51°12.633 2°49.378 -999 2.866064 30.19614 -0.882377
2006-02-22 07:59:54 51°12.624 2°49.359 -999 2.867822 30.216568 -0.882377
2006-02-22 08:00:00 51°12.614 2°49.33 -999 2.868649 30.224384 -0.882377
2006-02-22 08:00:04 51°12.607 2°49.311 -999 2.869166 30.233089 -0.882377
2006-02-22 08:00:09 51°12.599 2°49.286 -999 2.868856 30.230383 -0.882377
2006-02-22 08:00:15 51°12.588 2°49.257 -999 2.868856 30.230383 -0.882377
2006-02-22 08:00:20 51°12.579 2°49.232 -999 2.868856 30.229484 -0.882377
2006-02-22 08:00:24 51°12.573 2°49.212 -999 2.869993 30.241805 -0.848668
2006-02-22 08:00:30 51°12.562 2°49.183 -999 2.868545 30.22498 -0.882377
2006-02-22 08:00:35 51°12.554 2°49.157 -999 2.868752 30.228282 -0.848668
2006-02-22 08:00:39 51°12.549 2°49.137 -999 2.8702 30.245108 -0.882377
2006-02-22 08:00:44 51°12.539 2°49.113 -999 2.868545 30.226777 -0.882377
2006-02-22 08:00:50 51°12.529 2°49.084 -999 2.868545 30.226777 -0.882377
2006-02-22 08:00:55 51°12.521 2°49.059 -999 2.870717 30.253816 -0.882377
2006-02-22 08:00:59 51°12.514 2°49.041 -999 2.872268 30.272747 -0.882377
2006-02-22 08:01:04 51°12.505 2°49.016 -999 2.871441 30.26313 -0.882377
2006-02-22 08:01:10 51°12.495 2°48.988 -999 2.872785 30.278757 -0.882377
2006-02-22 08:01:15 51°12.487 2°48.964 -999 2.870614 30.254413 -0.882377
2006-02-22 08:01:20 51°12.477 2°48.941 -999 2.870614 30.254413 -0.882377
2006-02-22 08:01:24 51°12.469 2°48.922 -999 2.871544 30.266132 -0.882377
2006-02-22 08:01:30 51°12.459 2°48.894 -999 2.872165 30.273345 -0.916087
2006-02-22 08:01:35 51°12.449 2°48.872 -999 2.870924 30.259819 -0.882377
2006-02-22 08:01:40 51°12.442 2°48.846 -999 2.871441 30.26583 -0.916087
2006-02-22 08:01:44 51°12.434 2°48.829 -999 2.873405 30.288673 -0.882377
2006-02-22 08:01:50 51°12.424 2°48.8 -999 2.873405 30.288673 -0.882377
2006-02-22 08:01:55 51°12.413 2°48.778 -999 2.874233 30.299193 -0.916087
2006-02-22 08:02:00 51°12.406 2°48.754 -999 2.872992 30.282963 -0.916087
2006-02-22 08:02:04 51°12.397 2°48.737 -999 2.873922 30.292882 -0.882377
2006-02-22 08:02:09 51°12.388 2°48.712 -999 2.872371 30.274849 -0.916087
2006-02-22 08:02:14 51°12.379 2°48.689 -999 2.872371 30.274849 -0.916087
2006-02-22 08:02:20 51°12.369 2°48.662 -999 2.875887 30.315727 -0.916087
2006-02-22 08:02:24 51°12.361 2°48.642 -999 2.876301 30.321438 -0.916087
2006-02-22 08:02:29 51°12.354 2°48.617 -999 2.87506 30.307009 -0.916087
2006-02-22 08:02:35 51°12.344 2°48.589 -999 2.873302 30.285669 -0.916087
2006-02-22 08:02:40 51°12.333 2°48.566 -999 2.876921 30.328653 -0.916087
2006-02-22 08:02:44 51°12.327 2°48.546 -999 2.876197 30.319334 -0.916087
2006-02-22 08:02:50 51°12.316 2°48.519 -999 2.876197 30.319334 -0.916087
2006-02-22 08:02:55 51°12.307 2°48.494 -999 2.875784 30.314524 -0.916087
2006-02-22 08:03:00 51°12.299 2°48.471 -999 2.876197 30.320236 -0.916087
2006-02-22 08:03:04 51°12.29 2°48.453 -999 2.873509 30.288974 -0.882377
2006-02-22 08:03:10 51°12.281 2°48.423 -999 2.878162 30.343083 -0.916087
2006-02-22 08:03:15 51°12.27 2°48.399 -999 2.877955 30.340678 -0.916087
2006-02-22 08:03:19 51°12.265 2°48.379 -999 2.877955 30.340678 -0.916087
2006-02-22 08:03:24 51°12.256 2°48.356 -999 2.877025 30.328953 -0.882377
2006-02-22 08:03:30 51°12.246 2°48.326 -999 2.877025 30.32715 -0.882377
2006-02-22 08:03:35 51°12.238 2°48.301 -999 2.877025 30.32715 -0.882377
2006-02-22 08:03:40 51°12.231 2°48.278 -999 2.876818 30.323843 -0.882377
2006-02-22 08:03:44 51°12.223 2°48.259 -999 2.876818 30.323843 -0.882377
2006-02-22 08:03:48 51°12.216 2°48.239 -999 2.876301 30.317831 -0.882377
2006-02-22 08:03:54 51°12.206 2°48.211 -999 2.876921 30.325045 -0.882377
2006-02-22 08:03:59 51°12.197 2°48.187 -999 2.875784 30.31182 -0.882377
2006-02-22 08:04:05 51°12.186 2°48.159 -999 2.876611 30.323242 -0.882377
2006-02-22 08:04:08 51°12.181 2°48.145 -999 2.876094 30.31723 -0.882377
2006-02-22 08:04:15 51°12.168 2°48.111 -999 2.876094 30.31723 -0.882377
2006-02-22 08:04:20 51°12.158 2°48.088 -999 2.875887 30.314825 -0.882377
2006-02-22 08:04:24 51°12.152 2°48.069 -999 2.875163 30.30731 -0.882377
2006-02-22 08:04:30 51°12.14 2°48.041 -999 2.875267 30.311217 -0.882377
2006-02-22 08:04:34 51°12.134 2°48.021 -999 2.872682 30.272154 -0.882377
2006-02-22 08:04:40 51°12.123 2°47.993 -999 2.875163 30.296498 -0.882377
2006-02-22 08:04:44 51°12.117 2°47.973 -999 2.872165 30.267044 -0.882377
2006-02-22 08:04:50 51°12.106 2°47.946 -999 2.872165 30.267044 -0.882377
2006-02-22 08:04:55 51°12.097 2°47.922 -999 2.873716 30.289577 -0.882377
2006-02-22 08:05:00 51°12.087 2°47.901 -999 2.874439 30.300696 -0.882377
2006-02-22 08:05:05 51°12.079 2°47.877 -999 2.869993 30.251699 -0.882377
2006-02-22 08:05:10 51°12.068 2°47.855 -999 2.871441 30.269431 -0.882377
2006-02-22 08:05:15 51°12.06 2°47.83 -999 2.874233 30.303699 -0.882377
2006-02-22 08:05:20 51°12.05 2°47.808 -999 2.874233 30.303699 -0.882377
2006-02-22 08:05:25 51°12.043 2°47.782 -999 2.871958 30.279045 -0.882377
2006-02-22 08:05:30 51°12.032 2°47.76 -999 2.868752 30.241771 -0.882377
2006-02-22 08:05:34 51°12.027 2°47.739 -999 2.872578 30.283558 -0.882377
2006-02-22 08:05:40 51°12.015 2°47.711 -999 2.871337 30.267328 -0.882377
2006-02-22 08:05:44 51°12.01 2°47.691 -999 2.871337 30.267328 -0.882377
2006-02-22 08:05:50 51°11.997 2°47.664 -999 2.870717 30.258315 -0.882377
2006-02-22 08:05:55 51°11.991 2°47.639 -999 2.86958 30.245991 -0.882377
2006-02-22 08:06:00 51°11.98 2°47.617 -999 2.8702 30.255003 -0.882377
2006-02-22 08:06:04 51°11.974 2°47.596 -999 2.872371 30.278451 -0.882377
2006-02-22 08:06:09 51°11.967 2°47.572 -999 2.872992 30.285665 -0.882377
2006-02-22 08:06:15 51°11.956 2°47.544 -999 2.871854 30.267038 -0.882377
2006-02-22 08:06:19 51°11.95 2°47.525 -999 2.871854 30.267038 -0.882377
2006-02-22 08:06:24 51°11.94 2°47.502 -999 2.871337 30.259228 -0.882377
2006-02-22 08:06:29 51°11.932 2°47.478 -999 2.872475 30.274251 -0.848668
2006-02-22 08:06:35 51°11.922 2°47.45 -999 2.8702 30.249605 -0.848668
2006-02-22 08:06:40 51°11.911 2°47.428 -999 2.869476 30.240291 -0.848668
2006-02-22 08:06:44 51°11.906 2°47.408 -999 2.869063 30.235484 -0.848668
2006-02-22 08:06:50 51°11.894 2°47.382 -999 2.869063 30.235484 -0.848668
2006-02-22 08:06:55 51°11.886 2°47.357 -999 2.871544 30.262532 -0.882377
2006-02-22 08:07:00 51°11.876 2°47.334 -999 2.869476 30.240291 -0.848668
2006-02-22 08:07:04 51°11.869 2°47.316 -999 2.872888 30.282661 -0.882377
2006-02-22 08:07:09 51°11.86 2°47.292 -999 2.871544 30.265232 -0.848668
2006-02-22 08:07:14 51°11.852 2°47.267 -999 2.871544 30.265232 -0.848668
2006-02-22 08:07:20 51°11.842 2°47.239 -999 2.869683 30.239998 -0.848668
2006-02-22 08:07:25 51°11.833 2°47.216 -999 2.869579 30.238796 -0.848668
2006-02-22 08:07:30 51°11.824 2°47.192 -999 2.872371 30.271248 -0.848668
2006-02-22 08:07:35 51°11.815 2°47.168 -999 2.872475 30.27065 -0.848668
2006-02-22 08:07:39 51°11.808 2°47.149 -999 2.872165 30.266144 -0.848668
2006-02-22 08:07:44 51°11.8 2°47.124 -999 2.87113 30.251427 -0.848668
2006-02-22 08:07:50 51°11.788 2°47.096 -999 2.87113 30.251427 -0.848668
2006-02-22 08:07:54 51°11.783 2°47.075 -999 2.868545 30.220487 -0.814958
2006-02-22 08:07:59 51°11.774 2°47.051 -999 2.872061 30.259544 -0.848668
2006-02-22 08:08:05 51°11.764 2°47.021 -999 2.871441 30.250536 -0.814958
2006-02-22 08:08:08 51°11.759 2°47.007 -999 2.871544 30.251737 -0.814958
2006-02-22 08:08:15 51°11.746 2°46.973 -999 2.869476 30.227707 -0.814958
2006-02-22 08:08:20 51°11.739 2°46.948 -999 2.869476 30.227707 -0.814958
2006-02-22 08:08:24 51°11.731 2°46.929 -999 2.872061 30.256846 -0.814958
2006-02-22 08:08:30 51°11.722 2°46.898 -999 2.872164 30.257148 -0.814958
2006-02-22 08:08:35 51°11.714 2°46.874 -999 2.872061 30.256846 -0.814958
2006-02-22 08:08:40 51°11.706 2°46.849 -999 2.870717 30.240327 -0.814958
2006-02-22 08:08:44 51°11.698 2°46.83 -999 2.871751 30.252342 -0.814958
2006-02-22 08:08:50 51°11.69 2°46.8 -999 2.871751 30.252342 -0.814958
2006-02-22 08:08:55 51°11.682 2°46.775 -999 2.872371 30.258652 -0.814958
2006-02-22 08:09:00 51°11.675 2°46.749 -999 2.871647 30.25204 -0.814958
2006-02-22 08:09:04 51°11.671 2°46.727 -999 2.871647 30.252939 -0.814958
2006-02-22 08:09:09 51°11.664 2°46.701 -999 2.871544 30.252636 -0.814958
2006-02-22 08:09:15 51°11.658 2°46.669 -999 2.871544 30.252636 -0.814958
2006-02-22 08:09:20 51°11.653 2°46.642 -999 2.872785 30.267056 -0.814958
2006-02-22 08:09:24 51°11.65 2°46.62 -999 2.872164 30.258947 -0.814958
2006-02-22 08:09:30 51°11.643 2°46.588 -999 2.871647 30.25204 -0.814958
2006-02-22 08:09:34 51°11.641 2°46.566 -999 2.872785 30.263458 -0.814958
2006-02-22 08:09:39 51°11.636 2°46.539 -999 2.8702 30.23432 -0.814958
2006-02-22 08:09:45 51°11.629 2°46.508 -999 2.872061 30.257745 -0.814958
2006-02-22 08:09:50 51°11.625 2°46.48 -999 2.872061 30.257745 -0.814958
2006-02-22 08:09:55 51°11.62 2°46.453 -999 2.872268 30.261048 -0.814958
2006-02-22 08:09:59 51°11.617 2°46.431 -999 2.87082 30.244225 -0.814958
2006-02-22 08:10:04 51°11.611 2°46.405 -999 2.871958 30.255644 -0.814958
2006-02-22 08:10:10 51°11.607 2°46.371 -999 2.871337 30.248435 -0.814958
2006-02-22 08:10:14 51°11.602 2°46.351 -999 2.873302 30.273065 -0.814958
2006-02-22 08:10:19 51°11.597 2°46.324 -999 2.873302 30.273065 -0.814958
2006-02-22 08:10:24 51°11.591 2°46.297 -999 2.871647 30.257436 -0.814958
2006-02-22 08:10:30 51°11.586 2°46.265 -999 2.872371 30.268548 -0.848668
2006-02-22 08:10:35 51°11.581 2°46.238 -999 2.873405 30.282368 -0.814958
2006-02-22 08:10:40 51°11.575 2°46.211 -999 2.873302 30.279366 -0.814958
2006-02-22 08:10:44 51°11.572 2°46.189 -999 2.874233 30.291084 -0.814958
2006-02-22 08:10:48 51°11.568 2°46.168 -999 2.874233 30.291084 -0.814958
2006-02-22 08:10:55 51°11.561 2°46.13 -999 2.872785 30.275156 -0.814958
2006-02-22 08:11:00 51°11.556 2°46.103 -999 2.871958 30.26644 -0.814958
2006-02-22 08:11:04 51°11.552 2°46.082 -999 2.874026 30.290481 -0.814958
2006-02-22 08:11:09 51°11.548 2°46.054 -999 2.873819 30.288077 -0.781249
2006-02-22 08:11:15 51°11.541 2°46.022 -999 2.87506 30.302503 -0.814958
2006-02-22 08:11:20 51°11.536 2°45.995 -999 2.87506 30.302503 -0.814958
2006-02-22 08:11:24 51°11.533 2°45.973 -999 2.873819 30.288077 -0.814958
2006-02-22 08:11:29 51°11.527 2°45.946 -999 2.873922 30.288379 -0.814958
2006-02-22 08:11:35 51°11.523 2°45.912 -999 2.871131 30.255925 -0.814958
2006-02-22 08:11:40 51°11.517 2°45.886 -999 2.873509 30.28177 -0.814958
2006-02-22 08:11:44 51°11.514 2°45.864 -999 2.87506 30.298899 -0.814958
2006-02-22 08:11:49 51°11.508 2°45.838 -999 2.87506 30.298899 -0.814958
2006-02-22 08:11:55 51°11.503 2°45.806 -999 2.876404 30.314527 -0.814958
2006-02-22 08:11:59 51°11.498 2°45.785 -999 2.876714 30.319936 -0.814958
2006-02-22 08:12:04 51°11.493 2°45.757 -999 2.87568 30.307914 -0.814958
2006-02-22 08:12:10 51°11.487 2°45.725 -999 2.875163 30.301903 -0.814958
2006-02-22 08:12:14 51°11.483 2°45.703 -999 2.874129 30.290783 -0.814958
2006-02-22 08:12:19 51°11.478 2°45.675 -999 2.874129 30.290783 -0.814958
2006-02-22 08:12:24 51°11.474 2°45.648 -999 2.876507 30.319334 -0.848668
2006-02-22 08:12:30 51°11.467 2°45.616 -999 2.874543 30.295591 -0.814958
2006-02-22 08:12:35 51°11.464 2°45.587 -999 2.873922 30.287478 -0.848668
2006-02-22 08:12:39 51°11.459 2°45.566 -999 2.875887 30.307615 -0.848668
2006-02-22 08:12:44 51°11.456 2°45.539 -999 2.875887 30.307615 -0.848668
2006-02-22 08:12:50 51°11.448 2°45.506 -999 2.87568 30.303409 -0.848668
2006-02-22 08:12:54 51°11.446 2°45.484 -999 2.876301 30.310621 -0.848668
2006-02-22 08:12:59 51°11.44 2°45.458 -999 2.877955 30.329854 -0.848668
2006-02-22 08:13:04 51°11.434 2°45.43 -999 2.877852 30.329554 -0.814958
2006-02-22 08:13:10 51°11.43 2°45.397 -999 2.878679 30.340073 -0.848668
2006-02-22 08:13:15 51°11.424 2°45.37 -999 2.878162 30.332258 -0.848668
2006-02-22 08:13:20 51°11.421 2°45.342 -999 2.878162 30.332258 -0.848668
2006-02-22 08:13:24 51°11.416 2°45.32 -999 2.87961 30.349089 -0.848668
2006-02-22 08:13:30 51°11.412 2°45.286 -999 2.881471 30.368924 -0.848668
2006-02-22 08:13:34 51°11.409 2°45.265 -999 2.882298 30.37764 -0.848668
2006-02-22 08:13:40 51°11.403 2°45.233 -999 2.882815 30.383651 -0.848668
2006-02-22 08:13:45 51°11.397 2°45.206 -999 2.884676 30.405294 -0.848668
2006-02-22 08:13:50 51°11.393 2°45.179 -999 2.884676 30.405294 -0.848668
2006-02-22 08:13:55 51°11.387 2°45.153 -999 2.88447 30.405601 -0.848668
2006-02-22 08:14:00 51°11.38 2°45.126 -999 2.884883 30.412219 -0.848668
2006-02-22 08:14:04 51°11.378 2°45.104 -999 2.883125 30.393583 -0.882377
2006-02-22 08:14:10 51°11.37 2°45.072 -999 2.885607 30.424256 -0.882377
2006-02-22 08:14:14 51°11.366 2°45.05 -999 2.884883 30.416741 -0.882377
2006-02-22 08:14:20 51°11.359 2°45.019 -999 2.884883 30.416741 -0.882377
2006-02-22 08:14:25 51°11.354 2°44.992 -999 2.884263 30.409524 -0.882377
2006-02-22 08:14:30 51°11.349 2°44.965 -999 2.884676 30.413431 -0.882377
2006-02-22 08:14:35 51°11.344 2°44.938 -999 2.887675 30.446503 -0.882377
2006-02-22 08:14:39 51°11.34 2°44.917 -999 2.887779 30.445895 -0.882377
2006-02-22 08:14:44 51°11.334 2°44.89 -999 2.887779 30.445895 -0.882377
2006-02-22 08:14:50 51°11.328 2°44.857 -999 2.887572 30.44349 -0.882377
2006-02-22 08:14:55 51°11.324 2°44.831 -999 2.888192 30.451612 -0.882377
2006-02-22 08:15:00 51°11.318 2°44.804 -999 2.886227 30.427854 -0.882377
2006-02-22 08:15:04 51°11.316 2°44.781 -999 2.885917 30.42515 -0.882377
2006-02-22 08:15:08 51°11.311 2°44.76 -999 2.886331 30.429056 -0.848668
2006-02-22 08:15:14 51°11.304 2°44.727 -999 2.884263 30.405003 -0.882377
2006-02-22 08:15:19 51°11.3 2°44.7 -999 2.884263 30.405003 -0.882377
2006-02-22 08:15:25 51°11.294 2°44.667 -999 2.885917 30.42515 -0.848668
2006-02-22 08:15:28 51°11.292 2°44.65 -999 2.885814 30.423948 -0.882377
2006-02-22 08:15:35 51°11.284 2°44.61 -999 2.885607 30.419733 -0.848668
2006-02-22 08:15:40 51°11.279 2°44.584 -999 2.885917 30.422437 -0.848668
2006-02-22 08:15:44 51°11.275 2°44.562 -999 2.886331 30.426343 -0.848668
2006-02-22 08:15:50 51°11.27 2°44.528 -999 2.886331 30.426343 -0.848668
2006-02-22 08:15:55 51°11.266 2°44.5 -999 2.883125 30.390872 -0.882377
2006-02-22 08:16:00 51°11.26 2°44.473 -999 2.882608 30.383956 -0.848668
2006-02-22 08:16:04 51°11.257 2°44.451 -999 2.88478 30.410112 -0.848668
2006-02-22 08:16:10 51°11.25 2°44.418 -999 2.884573 30.407707 -0.848668
2006-02-22 08:16:14 51°11.247 2°44.396 -999 2.884573 30.407707 -0.848668
2006-02-22 08:16:20 51°11.241 2°44.363 -999 2.885297 30.41703 -0.882377
2006-02-22 08:16:25 51°11.236 2°44.336 -999 2.886331 30.429961 -0.848668
2006-02-22 08:16:30 51°11.231 2°44.309 -999 2.8854 30.420041 -0.848668
2006-02-22 08:16:35 51°11.227 2°44.281 -999 2.883746 30.398991 -0.848668
2006-02-22 08:16:39 51°11.222 2°44.26 -999 2.884676 30.410718 -0.882377
2006-02-22 08:16:44 51°11.217 2°44.234 -999 2.883849 30.401097 -0.882377
2006-02-22 08:16:50 51°11.21 2°44.201 -999 2.883849 30.401097 -0.882377
2006-02-22 08:16:55 51°11.205 2°44.173 -999 2.881471 30.375245 -0.882377
2006-02-22 08:17:00 51°11.201 2°44.145 -999 2.885917 30.42696 -0.848668
2006-02-22 08:17:04 51°11.197 2°44.124 -999 2.885504 30.423053 -0.882377
2006-02-22 08:17:10 51°11.193 2°44.09 -999 2.885193 30.420349 -0.882377
2006-02-22 08:17:14 51°11.189 2°44.068 -999 2.885607 30.425161 -0.882377
2006-02-22 08:17:19 51°11.186 2°44.04 -999 2.885607 30.425161 -0.882377
2006-02-22 08:17:24 51°11.182 2°44.013 -999 2.88478 30.412825 -0.882377
2006-02-22 08:17:30 51°11.177 2°43.98 -999 2.885504 30.420339 -0.882377
2006-02-22 08:17:35 51°11.173 2°43.952 -999 2.883642 30.397788 -0.848668
2006-02-22 08:17:39 51°11.169 2°43.93 -999 2.885297 30.416125 -0.882377
2006-02-22 08:17:44 51°11.165 2°43.902 -999 2.883953 30.401396 -0.848668
2006-02-22 08:17:48 51°11.161 2°43.88 -999 2.883953 30.401396 -0.848668
2006-02-22 08:17:55 51°11.156 2°43.841 -999 2.883229 30.393882 -0.848668
2006-02-22 08:18:00 51°11.151 2°43.813 -999 2.883746 30.399894 -0.848668
2006-02-22 08:18:04 51°11.149 2°43.79 -999 2.883539 30.398393 -0.848668
2006-02-22 08:18:10 51°11.144 2°43.757 -999 2.882608 30.388473 -0.848668
2006-02-22 08:18:15 51°11.139 2°43.73 -999 2.882608 30.388473 -0.848668
2006-02-22 08:18:20 51°11.135 2°43.701 -999 2.883849 30.402001 -0.848668
2006-02-22 08:18:24 51°11.132 2°43.679 -999 2.882298 30.383059 -0.848668
2006-02-22 08:18:28 51°11.128 2°43.658 -999 2.883125 30.390872 -0.848668
2006-02-22 08:18:34 51°11.122 2°43.624 -999 2.883229 30.392978 -0.848668
2006-02-22 08:18:39 51°11.118 2°43.596 -999 2.881678 30.374941 -0.882377
2006-02-22 08:18:45 51°11.111 2°43.564 -999 2.882815 30.388168 -0.848668
2006-02-22 08:18:50 51°11.108 2°43.536 -999 2.882815 30.388168 -0.848668
2006-02-22 08:18:55 51°11.103 2°43.508 -999 2.883539 30.398393 -0.848668
2006-02-22 08:18:59 51°11.099 2°43.487 -999 2.882505 30.386367 -0.848668
2006-02-22 08:19:04 51°11.094 2°43.459 -999 2.881264 30.371034 -0.848668
2006-02-22 08:19:10 51°11.089 2°43.427 -999 2.884056 30.402598 -0.848668
2006-02-22 08:19:14 51°11.084 2°43.406 -999 2.883953 30.401396 -0.848668
2006-02-22 08:19:19 51°11.08 2°43.377 -999 2.883953 30.401396 -0.848668
2006-02-22 08:19:24 51°11.076 2°43.35 -999 2.883022 30.389669 -0.882377
2006-02-22 08:19:30 51°11.07 2°43.317 -999 2.88447 30.406505 -0.882377
2006-02-22 08:19:35 51°11.067 2°43.29 -999 2.88478 30.409208 -0.882377
2006-02-22 08:19:40 51°11.062 2°43.261 -999 2.884987 30.412517 -0.848668
2006-02-22 08:19:44 51°11.059 2°43.239 -999 2.88478 30.410112 -0.882377
2006-02-22 08:19:48 51°11.056 2°43.217 -999 2.88478 30.410112 -0.882377
2006-02-22 08:19:54 51°11.05 2°43.184 -999 2.885917 30.424246 -0.848668
2006-02-22 08:19:59 51°11.045 2°43.154 -999 2.88478 30.411921 -0.882377
2006-02-22 08:20:05 51°11.041 2°43.121 -999 2.885504 30.419435 -0.882377
2006-02-22 08:20:10 51°11.038 2°43.093 -999 2.885917 30.423341 -0.882377
2006-02-22 08:20:15 51°11.033 2°43.065 -999 2.886331 30.429056 -0.882377
2006-02-22 08:20:20 51°11.03 2°43.037 -999 2.886331 30.429056 -0.882377
2006-02-22 08:20:24 51°11.027 2°43.014 -999 2.887158 30.436868 -0.882377
2006-02-22 08:20:30 51°11.022 2°42.981 -999 2.886434 30.427545 -0.882377
2006-02-22 08:20:35 51°11.018 2°42.954 -999 2.887468 30.438667 -0.882377
2006-02-22 08:20:39 51°11.015 2°42.93 -999 2.888089 30.445883 -0.882377
2006-02-22 08:20:44 51°11.011 2°42.903 -999 2.888089 30.447693 -0.882377
2006-02-22 08:20:50 51°11.006 2°42.87 -999 2.888089 30.447693 -0.882377
2006-02-22 08:20:54 51°11.002 2°42.847 -999 2.887158 30.438678 -0.882377
2006-02-22 08:20:59 51°10.999 2°42.819 -999 2.888606 30.456423 -0.882377
2006-02-22 08:21:05 51°10.994 2°42.787 -999 2.889536 30.466344 -0.882377
2006-02-22 08:21:10 51°10.989 2°42.759 -999 2.889433 30.464235 -0.882377
2006-02-22 08:21:15 51°10.986 2°42.73 -999 2.889019 30.460329 -0.882377
2006-02-22 08:21:20 51°10.981 2°42.703 -999 2.889019 30.460329 -0.882377
2006-02-22 08:21:24 51°10.978 2°42.681 -999 2.890674 30.479576 -0.882377
2006-02-22 08:21:30 51°10.972 2°42.649 -999 2.891191 30.485591 -0.882377
2006-02-22 08:21:34 51°10.969 2°42.626 -999 2.892639 30.50062 -0.882377
2006-02-22 08:21:39 51°10.965 2°42.597 -999 2.892432 30.496401 -0.882377
2006-02-22 08:21:45 51°10.961 2°42.565 -999 2.892432 30.496401 -0.882377
2006-02-22 08:21:50 51°10.956 2°42.537 -999 2.893362 30.505414 -0.882377
2006-02-22 08:21:54 51°10.953 2°42.514 -999 2.893673 30.50993 -0.882377
2006-02-22 08:22:00 51°10.948 2°42.481 -999 2.894086 30.513835 -0.882377
2006-02-22 08:22:04 51°10.946 2°42.458 -999 2.892949 30.500602 -0.882377
2006-02-22 08:22:09 51°10.94 2°42.432 -999 2.894086 30.513835 -0.882377
2006-02-22 08:22:15 51°10.937 2°42.398 -999 2.894396 30.516537 -0.882377
2006-02-22 08:22:20 51°10.931 2°42.37 -999 2.894396 30.516537 -0.882377
2006-02-22 08:22:24 51°10.929 2°42.348 -999 2.893569 30.506913 -0.882377
2006-02-22 08:22:30 51°10.923 2°42.316 -999 2.895431 30.526752 -0.882377
2006-02-22 08:22:35 51°10.917 2°42.289 -999 2.895637 30.527343 -0.882377
2006-02-22 08:22:40 51°10.914 2°42.26 -999 2.895844 30.528841 -0.882377
2006-02-22 08:22:44 51°10.91 2°42.238 -999 2.896982 30.540258 -0.882377
2006-02-22 08:22:49 51°10.906 2°42.21 -999 2.896982 30.540258 -0.882377
2006-02-22 08:22:54 51°10.901 2°42.183 -999 2.896982 30.538443 -0.882377
2006-02-22 08:22:59 51°10.896 2°42.156 -999 2.897809 30.54625 -0.882377
2006-02-22 08:23:04 51°10.892 2°42.127 -999 2.898222 30.548338 -0.882377
2006-02-22 08:23:08 51°10.889 2°42.104 -999 2.898533 30.55013 -0.882377
2006-02-22 08:23:15 51°10.883 2°42.066 -999 2.89905 30.555236 -0.882377
2006-02-22 08:23:19 51°10.879 2°42.044 -999 2.89905 30.555236 -0.882377
2006-02-22 08:23:24 51°10.876 2°42.016 -999 2.898946 30.552218 -0.882377
2006-02-22 08:23:28 51°10.872 2°41.994 -999 2.89905 30.550698 -0.882377
2006-02-22 08:23:34 51°10.869 2°41.96 -999 2.899463 30.553692 -0.882377
2006-02-22 08:23:39 51°10.865 2°41.933 -999 2.899153 30.54827 -0.882377
2006-02-22 08:23:44 51°10.86 2°41.906 -999 2.899153 30.54827 -0.882377
2006-02-22 08:23:50 51°10.855 2°41.873 -999 2.900187 30.557571 -0.882377
2006-02-22 08:23:55 51°10.851 2°41.845 -999 2.901014 30.564466 -0.882377
2006-02-22 08:24:00 51°10.846 2°41.817 -999 2.901221 30.565963 -0.882377
2006-02-22 08:24:04 51°10.843 2°41.795 -999 2.901738 30.572882 -0.882377
2006-02-22 08:24:10 51°10.837 2°41.763 -999 2.902048 30.576489 -0.882377
2006-02-22 08:24:14 51°10.835 2°41.74 -999 2.902359 30.57828 -0.882377
2006-02-22 08:24:19 51°10.83 2°41.713 -999 2.902359 30.57828 -0.882377
2006-02-22 08:24:24 51°10.827 2°41.686 -999 2.902772 30.581273 -0.882377
2006-02-22 08:24:30 51°10.821 2°41.653 -999 2.903186 30.585173 -0.882377
2006-02-22 08:24:35 51°10.818 2°41.625 -999 2.903496 30.586964 -0.882377
2006-02-22 08:24:40 51°10.812 2°41.599 -999 2.904013 30.591158 -0.882377
2006-02-22 08:24:44 51°10.81 2°41.576 -999 2.904323 30.592039 -0.882377
2006-02-22 08:24:50 51°10.804 2°41.543 -999 2.904323 30.592039 -0.882377
2006-02-22 08:24:55 51°10.801 2°41.516 -999 2.904634 30.595645 -0.882377
2006-02-22 08:25:00 51°10.796 2°41.489 -999 2.904944 30.599252 -0.882377
2006-02-22 08:25:05 51°10.793 2°41.461 -999 2.905151 30.601656 -0.882377
2006-02-22 08:25:10 51°10.787 2°41.434 -999 2.905254 30.601949 -0.882377
2006-02-22 08:25:15 51°10.784 2°41.407 -999 2.905254 30.601949 -0.882377
2006-02-22 08:25:19 51°10.779 2°41.385 -999 2.905357 30.602243 -0.882377
2006-02-22 08:25:24 51°10.776 2°41.358 -999 2.905357 30.601335 -0.882377
2006-02-22 08:25:30 51°10.771 2°41.325 -999 2.905254 30.599224 -0.882377
2006-02-22 08:25:35 51°10.767 2°41.297 -999 2.904944 30.594711 -0.882377
2006-02-22 08:25:40 51°10.763 2°41.269 -999 2.904633 30.590197 -0.882377
2006-02-22 08:25:45 51°10.758 2°41.241 -999 2.904323 30.584776 -0.882377
2006-02-22 08:25:50 51°10.756 2°41.213 -999 2.904323 30.584776 -0.882377
2006-02-22 08:25:55 51°10.75 2°41.187 -999 2.884676 30.356567 -0.882377
2006-02-22 08:26:00 51°10.747 2°41.158 -999 2.903496 30.57607 -0.882377
2006-02-22 08:26:04 51°10.745 2°41.135 -999 2.902875 30.569767 -0.882377
2006-02-22 08:26:10 51°10.74 2°41.101 -999 2.902462 30.564961 -0.882377
2006-02-22 08:26:14 51°10.738 2°41.079 -999 2.902255 30.559837 -0.882377
2006-02-22 08:26:19 51°10.735 2°41.051 -999 2.902255 30.559837 -0.882377
2006-02-22 08:26:24 51°10.732 2°41.023 -999 2.902048 30.553807 -0.882377
2006-02-22 08:26:30 51°10.728 2°40.989 -999 2.901531 30.550519 -0.882377
2006-02-22 08:26:35 51°10.725 2°40.961 -999 2.901014 30.548138 -0.882377
2006-02-22 08:26:40 51°10.719 2°40.934 -999 2.900601 30.545145 -0.882377
2006-02-22 08:26:44 51°10.718 2°40.911 -999 2.900187 30.541245 -0.882377
2006-02-22 08:26:49 51°10.711 2°40.885 -999 2.900187 30.541245 -0.882377
2006-02-22 08:26:55 51°10.708 2°40.85 -999 2.899877 30.536734 -0.882377
2006-02-22 08:27:00 51°10.703 2°40.823 -999 2.89967 30.535237 -0.882377
2006-02-22 08:27:04 51°10.701 2°40.8 -999 2.899463 30.531021 -0.882377
2006-02-22 08:27:10 51°10.695 2°40.767 -999 2.899463 30.530115 -0.882377
2006-02-22 08:27:15 51°10.691 2°40.739 -999 2.899463 30.529209 -0.882377
2006-02-22 08:27:19 51°10.688 2°40.717 -999 2.899463 30.529209 -0.882377
2006-02-22 08:27:24 51°10.683 2°40.69 -999 2.89967 30.528894 -0.882377
2006-02-22 08:27:28 51°10.68 2°40.668 -999 2.899773 30.530095 -0.882377
2006-02-22 08:27:34 51°10.675 2°40.634 -999 2.899773 30.531001 -0.882377
2006-02-22 08:27:40 51°10.67 2°40.601 -999 2.900083 30.536418 -0.882377
2006-02-22 08:27:44 51°10.667 2°40.579 -999 2.900394 30.540022 -0.882377
2006-02-22 08:27:50 51°10.661 2°40.545 -999 2.900394 30.540022 -0.882377
2006-02-22 08:27:55 51°10.657 2°40.518 -999 2.900704 30.543627 -0.882377
2006-02-22 08:27:59 51°10.653 2°40.495 -999 2.899773 30.532813 -0.882377
2006-02-22 08:28:05 51°10.647 2°40.462 -999 2.897395 30.505181 -0.882377
2006-02-22 08:28:10 51°10.643 2°40.433 -999 2.893879 30.467053 -0.848668
2006-02-22 08:28:15 51°10.638 2°40.405 -999 2.889846 30.422919 -0.882377
2006-02-22 08:28:19 51°10.634 2°40.383 -999 2.889846 30.422919 -0.882377
2006-02-22 08:28:25 51°10.629 2°40.349 -999 2.885607 30.376386 -0.848668
2006-02-22 08:28:30 51°10.622 2°40.321 -999 2.880023 30.316046 -0.848668
2006-02-22 08:28:35 51°10.619 2°40.292 -999 2.874232 30.252407 -0.848668
2006-02-22 08:28:40 51°10.612 2°40.265 -999 2.869682 30.200486 -0.848668
2006-02-22 08:28:44 51°10.609 2°40.241 -999 2.869682 30.200486 -0.848668
2006-02-22 08:28:50 51°10.603 2°40.209 -999 2.865029 30.148271 -0.848668
2006-02-22 08:28:55 51°10.6 2°40.18 -999 2.861204 30.104766 -0.848668
2006-02-22 08:29:00 51°10.593 2°40.153 -999 2.856241 30.048965 -0.848668
2006-02-22 08:29:04 51°10.59 2°40.131 -999 2.851794 29.997387 -0.848668
2006-02-22 08:29:10 51°10.583 2°40.098 -999 2.848072 29.956883 -0.848668
2006-02-22 08:29:15 51°10.58 2°40.07 -999 2.843936 29.912472 -0.848668
2006-02-22 08:29:20 51°10.572 2°40.043 -999 2.843936 29.912472 -0.848668
2006-02-22 08:29:24 51°10.569 2°40.02 -999 2.840731 29.877078 -0.848668
2006-02-22 08:29:30 51°10.563 2°39.987 -999 2.837629 29.841997 -0.848668
2006-02-22 08:29:34 51°10.559 2°39.964 -999 2.835975 29.822817 -0.848668
2006-02-22 08:29:40 51°10.555 2°39.93 -999 2.834941 29.809059 -0.814958
2006-02-22 08:29:44 51°10.551 2°39.908 -999 2.833287 29.788112 -0.848668
2006-02-22 08:29:50 51°10.545 2°39.873 -999 2.833287 29.788112 -0.848668
2006-02-22 08:29:54 51°10.542 2°39.851 -999 2.8337 29.789367 -0.814958
2006-02-22 08:30:00 51°10.536 2°39.817 -999 2.832666 29.777384 -0.814958
2006-02-22 08:30:04 51°10.533 2°39.794 -999 2.831322 29.763575 -0.814958
2006-02-22 08:30:08 51°10.529 2°39.773 -999 2.830805 29.759352 -0.814958
2006-02-22 08:30:14 51°10.523 2°39.739 -999 2.830702 29.759922 -0.814958
2006-02-22 08:30:19 51°10.52 2°39.71 -999 2.830702 29.759922 -0.814958
2006-02-22 08:30:24 51°10.513 2°39.682 -999 2.830805 29.760236 -0.814958
2006-02-22 08:30:30 51°10.51 2°39.648 -999 2.830392 29.756327 -0.814958
2006-02-22 08:30:35 51°10.504 2°39.621 -999 2.830288 29.755128 -0.814958
2006-02-22 08:30:40 51°10.5 2°39.591 -999 2.830185 29.75393 -0.814958
2006-02-22 08:30:44 51°10.496 2°39.569 -999 2.830805 29.759352 -0.814958
2006-02-22 08:30:50 51°10.49 2°39.534 -999 2.830805 29.759352 -0.814958
2006-02-22 08:30:55 51°10.486 2°39.506 -999 2.831322 29.762691 -0.814958
2006-02-22 08:31:00 51°10.481 2°39.477 -999 2.831529 29.765088 -0.814958
2006-02-22 08:31:04 51°10.478 2°39.454 -999 2.831425 29.765658 -0.814958
2006-02-22 08:31:09 51°10.475 2°39.425 -999 2.831425 29.766542 -0.814958
2006-02-22 08:31:15 51°10.469 2°39.392 -999 2.832046 29.771963 -0.814958
2006-02-22 08:31:20 51°10.465 2°39.364 -999 2.832046 29.771963 -0.814958
2006-02-22 08:31:25 51°10.46 2°39.336 -999 2.832873 29.778012 -0.781249
2006-02-22 08:31:28 51°10.457 2°39.319 -999 2.8337 29.785829 -0.814958
2006-02-22 08:31:35 51°10.451 2°39.279 -999 2.833907 29.789994 -0.814958
2006-02-22 08:31:40 51°10.443 2°39.252 -999 2.834424 29.797755 -0.814958
2006-02-22 08:31:44 51°10.442 2°39.229 -999 2.834424 29.797755 -0.781249
2006-02-22 08:31:49 51°10.434 2°39.203 -999 2.834424 29.797755 -0.781249
2006-02-22 08:31:54 51°10.431 2°39.175 -999 2.832046 29.769311 -0.814958
2006-02-22 08:32:00 51°10.424 2°39.142 -999 2.833183 29.780722 -0.814958
2006-02-22 08:32:05 51°10.417 2°39.116 -999 2.833493 29.782548 -0.814958
2006-02-22 08:32:10 51°10.413 2°39.087 -999 2.837732 29.829019 -0.814958
2006-02-22 08:32:15 51°10.408 2°39.059 -999 2.838766 29.840116 -0.814958
2006-02-22 08:32:20 51°10.403 2°39.031 -999 2.838766 29.840116 -0.814958
2006-02-22 08:32:25 51°10.399 2°39.002 -999 2.839904 29.851525 -0.814958
2006-02-22 08:32:28 51°10.397 2°38.985 -999 2.840834 29.863196 -0.814958
2006-02-22 08:32:34 51°10.39 2°38.952 -999 2.843419 29.891383 -0.814958
2006-02-22 08:32:39 51°10.387 2°38.923 -999 2.84435 29.90217 -0.814958
2006-02-22 08:32:45 51°10.381 2°38.889 -999 2.843833 29.89529 -0.814958
2006-02-22 08:32:50 51°10.377 2°38.861 -999 2.843833 29.89529 -0.814958
2006-02-22 08:32:55 51°10.372 2°38.833 -999 2.846728 29.927072 -0.814958
2006-02-22 08:33:00 51°10.368 2°38.804 -999 2.848072 29.939988 -0.814958
2006-02-22 08:33:04 51°10.364 2°38.782 -999 2.849002 29.949886 -0.814958
2006-02-22 08:33:10 51°10.357 2°38.747 -999 2.848279 29.940608 -0.814958
2006-02-22 08:33:15 51°10.353 2°38.718 -999 2.848382 29.940918 -0.814958
2006-02-22 08:33:20 51°10.347 2°38.691 -999 2.848382 29.940918 -0.814958
2006-02-22 08:33:24 51°10.343 2°38.667 -999 2.848072 29.938211 -0.814958
2006-02-22 08:33:30 51°10.337 2°38.633 -999 2.848279 29.940608 -0.814958
2006-02-22 08:33:35 51°10.332 2°38.606 -999 2.846624 29.919657 -0.814958
2006-02-22 08:33:40 51°10.326 2°38.578 -999 2.845384 29.905278 -0.814958
2006-02-22 08:33:44 51°10.323 2°38.555 -999 2.846004 29.913355 -0.814958
2006-02-22 08:33:49 51°10.317 2°38.528 -999 2.846004 29.913355 -0.814958
2006-02-22 08:33:55 51°10.312 2°38.494 -999 2.845073 29.901683 -0.814958
2006-02-22 08:34:00 51°10.306 2°38.467 -999 2.846935 29.922364 -0.814958
2006-02-22 08:34:05 51°10.302 2°38.44 -999 2.846314 29.914286 -0.814958
2006-02-22 08:34:10 51°10.294 2°38.412 -999 2.845694 29.905322 -0.814958
2006-02-22 08:34:15 51°10.29 2°38.385 -999 2.845694 29.905322 -0.814958
2006-02-22 08:34:20 51°10.284 2°38.358 -999 2.847555 29.926889 -0.814958
2006-02-22 08:34:24 51°10.28 2°38.335 -999 2.849416 29.94757 -0.814958
2006-02-22 08:34:30 51°10.273 2°38.302 -999 2.847451 29.925691 -0.814958
2006-02-22 08:34:34 51°10.269 2°38.28 -999 2.850036 29.952982 -0.814958
2006-02-22 08:34:40 51°10.262 2°38.246 -999 2.850036 29.949428 -0.814958
2006-02-22 08:34:45 51°10.257 2°38.218 -999 2.851484 29.962647 -0.814958
2006-02-22 08:34:50 51°10.252 2°38.19 -999 2.851484 29.962647 -0.814958
2006-02-22 08:34:55 51°10.247 2°38.162 -999 2.853448 29.984522 -0.814958
2006-02-22 08:34:59 51°10.242 2°38.14 -999 2.853862 29.991094 -0.814958
2006-02-22 08:35:04 51°10.237 2°38.112 -999 2.85531 30.00876 -0.814958
2006-02-22 08:35:10 51°10.231 2°38.079 -999 2.854896 30.003077 -0.814958
2006-02-22 08:35:15 51°10.225 2°38.051 -999 2.85624 30.018656 -0.814958
2006-02-22 08:35:20 51°10.221 2°38.022 -999 2.85624 30.018656 -0.814958
2006-02-22 08:35:24 51°10.217 2°38.001 -999 2.857688 30.034543 -0.781249
2006-02-22 08:35:30 51°10.211 2°37.969 -999 2.859756 30.057622 -0.781249
2006-02-22 08:35:35 51°10.203 2°37.94 -999 2.857584 30.031563 -0.781249
2006-02-22 08:35:40 51°10.2 2°37.912 -999 2.860066 30.059435 -0.781249
2006-02-22 08:35:44 51°10.193 2°37.893 -999 2.861307 30.072925 -0.781249
2006-02-22 08:35:50 51°10.187 2°37.858 -999 2.861307 30.072925 -0.781249
2006-02-22 08:35:55 51°10.183 2°37.83 -999 2.863582 30.100188 -0.781249
2006-02-22 08:36:00 51°10.178 2°37.803 -999 2.863375 30.096897 -0.781249
2006-02-22 08:36:04 51°10.174 2°37.78 -999 2.864098 30.099039 -0.781249
2006-02-22 08:36:10 51°10.167 2°37.746 -999 2.863892 30.093072 -0.781249
2006-02-22 08:36:15 51°10.163 2°37.719 -999 2.865443 30.109262 -0.781249
2006-02-22 08:36:20 51°10.157 2°37.691 -999 2.865443 30.109262 -0.781249
2006-02-22 08:36:25 51°10.151 2°37.664 -999 2.867304 30.13262 -0.781249
2006-02-22 08:36:28 51°10.149 2°37.648 -999 2.86689 30.12872 -0.781249
2006-02-22 08:36:35 51°10.138 2°37.61 -999 2.86627 30.121529 -0.74754
2006-02-22 08:36:40 51°10.136 2°37.58 -999 2.868648 30.149096 -0.781249
2006-02-22 08:36:45 51°10.128 2°37.554 -999 2.870613 30.170976 -0.781249
2006-02-22 08:36:48 51°10.126 2°37.537 -999 2.870613 30.170976 -0.781249
2006-02-22 08:36:55 51°10.117 2°37.498 -999 2.869062 30.152102 -0.74754
2006-02-22 08:36:59 51°10.115 2°37.475 -999 2.869372 30.153016 -0.781249
2006-02-22 08:37:05 51°10.107 2°37.442 -999 2.870716 30.162338 -0.781249
2006-02-22 08:37:10 51°10.103 2°37.413 -999 2.872577 30.183014 -0.781249
2006-02-22 08:37:15 51°10.097 2°37.385 -999 2.875783 30.219273 -0.781249
2006-02-22 08:37:20 51°10.092 2°37.356 -999 2.875783 30.219273 -0.781249
2006-02-22 08:37:25 51°10.086 2°37.328 -999 2.877024 30.231864 -0.781249
2006-02-22 08:37:30 51°10.081 2°37.3 -999 2.879298 30.256441 -0.781249
2006-02-22 08:37:35 51°10.075 2°37.272 -999 2.880746 30.270532 -0.781249
2006-02-22 08:37:40 51°10.069 2°37.243 -999 2.882504 30.29091 -0.781249
2006-02-22 08:37:44 51°10.066 2°37.22 -999 2.883435 30.301699 -0.781249
2006-02-22 08:37:48 51°10.061 2°37.199 -999 2.883435 30.301699 -0.781249
2006-02-22 08:37:55 51°10.054 2°37.159 -999 2.885709 30.328973 -0.781249
2006-02-22 08:37:59 51°10.05 2°37.136 -999 2.887157 30.34486 -0.781249
2006-02-22 08:38:04 51°10.046 2°37.108 -999 2.887467 30.345759 -0.781249
2006-02-22 08:38:10 51°10.04 2°37.074 -999 2.889225 30.365243 -0.781249
2006-02-22 08:38:15 51°10.035 2°37.047 -999 2.889535 30.365241 -0.781249
2006-02-22 08:38:20 51°10.031 2°37.018 -999 2.889535 30.365241 -0.781249
2006-02-22 08:38:24 51°10.028 2°36.996 -999 2.891914 30.390116 -0.781249
2006-02-22 08:38:30 51°10.025 2°36.962 -999 2.895636 30.431479 -0.781249
2006-02-22 08:38:35 51°10.021 2°36.933 -999 2.899566 30.473439 -0.814958
2006-02-22 08:38:40 51°10.02 2°36.904 -999 2.904219 30.524697 -0.814958
2006-02-22 08:38:45 51°10.017 2°36.876 -999 2.906184 30.543868 -0.814958
2006-02-22 08:38:50 51°10.015 2°36.846 -999 2.906184 30.543868 -0.814958
2006-02-22 08:38:55 51°10.014 2°36.817 -999 2.909493 30.578628 -0.814958
2006-02-22 08:39:00 51°10.012 2°36.788 -999 2.914457 30.634394 -0.814958
2006-02-22 08:39:04 51°10.011 2°36.765 -999 2.916525 30.656573 -0.814958
2006-02-22 08:39:10 51°10.01 2°36.73 -999 2.917352 30.664355 -0.814958
2006-02-22 08:39:15 51°10.008 2°36.701 -999 2.918076 30.670937 -0.814958
2006-02-22 08:39:19 51°10.007 2°36.678 -999 2.918076 30.670937 -0.814958
2006-02-22 08:39:25 51°10.004 2°36.644 -999 2.919731 30.688315 -0.814958
2006-02-22 08:39:30 51°10.002 2°36.615 -999 2.918697 30.675411 -0.814958
2006-02-22 08:39:35 51°10.001 2°36.586 -999 2.917973 30.667014 -0.814958
2006-02-22 08:39:40 51°9.999 2°36.558 -999 2.919938 30.688898 -0.814958
2006-02-22 08:39:44 51°9.997 2°36.534 -999 2.920351 30.69188 -0.814958
2006-02-22 08:39:50 51°9.994 2°36.498 -999 2.920351 30.69188 -0.814958
2006-02-22 08:39:55 51°9.994 2°36.469 -999 2.920041 30.687373 -0.814958
2006-02-22 08:40:00 51°9.99 2°36.441 -999 2.921489 30.703258 -0.814958
2006-02-22 08:40:04 51°9.99 2°36.416 -999 2.921282 30.699951 -0.814958
2006-02-22 08:40:10 51°9.988 2°36.381 -999 2.923764 30.728741 -0.814958
2006-02-22 08:40:15 51°9.986 2°36.353 -999 2.924177 30.731721 -0.814958
2006-02-22 08:40:20 51°9.986 2°36.323 -999 2.924177 30.731721 -0.814958
2006-02-22 08:40:24 51°9.985 2°36.299 -999 2.924074 30.728703 -0.814958
2006-02-22 08:40:29 51°9.987 2°36.27 -999 2.925625 30.745787 -0.814958
2006-02-22 08:40:35 51°9.989 2°36.235 -999 2.925625 30.744878 -0.814958
2006-02-22 08:40:40 51°9.992 2°36.206 -999 2.924901 30.734662 -0.814958
2006-02-22 08:40:45 51°9.993 2°36.177 -999 2.92759 30.76221 -0.814958
2006-02-22 08:40:50 51°9.996 2°36.148 -999 2.92759 30.76221 -0.814958
2006-02-22 08:40:55 51°9.999 2°36.12 -999 2.926556 30.747486 -0.814958
2006-02-22 08:41:00 51°10.002 2°36.091 -999 2.927176 30.753773 -0.814958
2006-02-22 08:41:04 51°10.005 2°36.068 -999 2.927797 30.760969 -0.814958
2006-02-22 08:41:10 51°10.012 2°36.036 -999 2.925935 30.738472 -0.814958
2006-02-22 08:41:15 51°10.018 2°36.009 -999 2.927176 30.752863 -0.814958
2006-02-22 08:41:20 51°10.025 2°35.982 -999 2.927176 30.752863 -0.814958
2006-02-22 08:41:25 51°10.033 2°35.957 -999 2.925522 30.732766 -0.814958
2006-02-22 08:41:29 51°10.04 2°35.937 -999 2.93183 30.801371 -0.814958
2006-02-22 08:41:34 51°10.049 2°35.912 -999 2.936277 30.845652 -0.848668
2006-02-22 08:41:39 51°10.061 2°35.89 -999 2.942585 30.9106 -0.882377
2006-02-22 08:41:45 51°10.074 2°35.864 -999 2.947963 30.964741 -0.882377
2006-02-22 08:41:50 51°10.086 2°35.844 -999 2.947963 30.964741 -0.882377
2006-02-22 08:41:54 51°10.097 2°35.83 -999 2.953237 31.018587 -0.882377
2006-02-22 08:42:00 51°10.113 2°35.809 -999 2.956029 31.044555 -0.916087
2006-02-22 08:42:04 51°10.125 2°35.796 -999 2.959029 31.072916 -0.916087
2006-02-22 08:42:10 51°10.143 2°35.78 -999 2.962545 31.109103 -0.916087
2006-02-22 08:42:15 51°10.158 2°35.769 -999 2.965544 31.14021 -0.916087
2006-02-22 08:42:20 51°10.175 2°35.762 -999 2.965544 31.14021 -0.916087
2006-02-22 08:42:25 51°10.192 2°35.757 -999 2.965958 31.140411 -0.916087
2006-02-22 08:42:28 51°10.202 2°35.755 -999 2.968957 31.171511 -0.916087
2006-02-22 08:42:35 51°10.225 2°35.756 -999 2.971646 31.199012 -0.916087
2006-02-22 08:42:40 51°10.242 2°35.76 -999 2.972266 31.202525 -0.916087
2006-02-22 08:42:45 51°10.258 2°35.767 -999 2.97299 31.208157 -0.916087
2006-02-22 08:42:48 51°10.267 2°35.771 -999 2.97299 31.208157 -0.916087
2006-02-22 08:42:55 51°10.288 2°35.785 -999 2.974749 31.225779 -0.916087
2006-02-22 08:43:00 51°10.303 2°35.797 -999 2.975679 31.233808 -0.882377
2006-02-22 08:43:05 51°10.318 2°35.81 -999 2.975266 31.22809 -0.882377
2006-02-22 08:43:08 51°10.326 2°35.817 -999 2.9763 31.239159 -0.882377
2006-02-22 08:43:15 51°10.347 2°35.835 -999 2.9763 31.239159 -0.882377
2006-02-22 08:43:20 51°10.362 2°35.848 -999 2.97661 31.2446 -0.882377
2006-02-22 08:43:25 51°10.377 2°35.862 -999 2.973094 31.205673 -0.882377
2006-02-22 08:43:28 51°10.386 2°35.869 -999 2.974335 31.221904 -0.882377
2006-02-22 08:43:35 51°10.406 2°35.888 -999 2.975783 31.242379 -0.848668
2006-02-22 08:43:39 51°10.418 2°35.899 -999 2.974438 31.230474 -0.848668
2006-02-22 08:43:44 51°10.433 2°35.913 -999 2.974749 31.235916 -0.848668
2006-02-22 08:43:48 51°10.445 2°35.924 -999 2.974749 31.235916 -0.848668
2006-02-22 08:43:55 51°10.466 2°35.944 -999 2.973404 31.222165 -0.848668
2006-02-22 08:44:00 51°10.481 2°35.957 -999 2.97268 31.215611 -0.848668
2006-02-22 08:44:05 51°10.495 2°35.971 -999 2.97206 31.210256 -0.882377
2006-02-22 08:44:10 51°10.51 2°35.985 -999 2.971646 31.208221 -0.848668
2006-02-22 08:44:15 51°10.524 2°36 -999 2.971749 31.212185 -0.848668
2006-02-22 08:44:20 51°10.539 2°36.013 -999 2.971749 31.212185 -0.848668
2006-02-22 08:44:24 51°10.551 2°36.025 -999 2.970922 31.203508 -0.882377
2006-02-22 08:44:30 51°10.568 2°36.041 -999 2.970819 31.202308 -0.848668
2006-02-22 08:44:35 51°10.583 2°36.055 -999 2.970612 31.199909 -0.882377
2006-02-22 08:44:40 51°10.598 2°36.069 -999 2.969474 31.187633 -0.848668
2006-02-22 08:44:45 51°10.613 2°36.084 -999 2.969578 31.190674 -0.848668
2006-02-22 08:44:48 51°10.622 2°36.092 -999 2.969578 31.190674 -0.848668
2006-02-22 08:44:55 51°10.642 2°36.112 -999 2.969681 31.191874 -0.848668
2006-02-22 08:45:00 51°10.656 2°36.126 -999 2.968336 31.177198 -0.848668
2006-02-22 08:45:04 51°10.668 2°36.138 -999 2.96844 31.179318 -0.848668
2006-02-22 08:45:09 51°10.683 2°36.152 -999 2.968026 31.17636 -0.848668
2006-02-22 08:45:15 51°10.701 2°36.168 -999 2.967716 31.175522 -0.848668
2006-02-22 08:45:20 51°10.715 2°36.182 -999 2.967716 31.175522 -0.848668
2006-02-22 08:45:24 51°10.727 2°36.193 -999 2.964717 31.143486 -0.848668
2006-02-22 08:45:30 51°10.745 2°36.21 -999 2.966268 31.163325 -0.848668
2006-02-22 08:45:35 51°10.76 2°36.224 -999 2.965854 31.158525 -0.814958
2006-02-22 08:45:40 51°10.775 2°36.238 -999 2.96482 31.148366 -0.814958
2006-02-22 08:45:44 51°10.787 2°36.249 -999 2.963786 31.138206 -0.814958
2006-02-22 08:45:50 51°10.804 2°36.266 -999 2.963786 31.138206 -0.814958
2006-02-22 08:45:55 51°10.818 2°36.28 -999 2.964303 31.145126 -0.814958
2006-02-22 08:46:00 51°10.833 2°36.294 -999 2.963683 31.137926 -0.814958
2006-02-22 08:46:04 51°10.844 2°36.305 -999 2.963683 31.139765 -0.814958
2006-02-22 08:46:10 51°10.861 2°36.323 -999 2.962545 31.127484 -0.814958
2006-02-22 08:46:15 51°10.876 2°36.337 -999 2.962752 31.131724 -0.814958
2006-02-22 08:46:19 51°10.887 2°36.349 -999 2.962752 31.131724 -0.814958
2006-02-22 08:46:24 51°10.902 2°36.363 -999 2.962028 31.124242 -0.814958
2006-02-22 08:46:30 51°10.918 2°36.381 -999 2.962131 31.127282 -0.814958
2006-02-22 08:46:35 51°10.933 2°36.397 -999 2.961718 31.12432 -0.814958
2006-02-22 08:46:39 51°10.944 2°36.409 -999 2.960166 31.108156 -0.814958
2006-02-22 08:46:44 51°10.958 2°36.425 -999 2.960373 31.112395 -0.814958
2006-02-22 08:46:50 51°10.975 2°36.444 -999 2.960373 31.112395 -0.814958
2006-02-22 08:46:55 51°10.989 2°36.459 -999 2.959236 31.10103 -0.814958
2006-02-22 08:47:00 51°11.002 2°36.474 -999 2.959132 31.100749 -0.814958
2006-02-22 08:47:04 51°11.013 2°36.486 -999 2.959753 31.10979 -0.814958
2006-02-22 08:47:10 51°11.03 2°36.505 -999 2.959442 31.108028 -0.781249
2006-02-22 08:47:15 51°11.044 2°36.52 -999 2.958615 31.100262 -0.814958
2006-02-22 08:47:19 51°11.056 2°36.533 -999 2.958615 31.100262 -0.814958
2006-02-22 08:47:24 51°11.07 2°36.548 -999 2.958719 31.103302 -0.814958
2006-02-22 08:47:29 51°11.084 2°36.563 -999 2.957478 31.090733 -0.781249
2006-02-22 08:47:35 51°11.101 2°36.582 -999 2.957891 31.097375 -0.781249
2006-02-22 08:47:40 51°11.115 2°36.597 -999 2.957478 31.094411 -0.781249
2006-02-22 08:47:44 51°11.126 2°36.61 -999 2.957684 31.097732 -0.814958
2006-02-22 08:47:50 51°11.143 2°36.629 -999 2.957684 31.097732 -0.814958
2006-02-22 08:47:54 51°11.155 2°36.642 -999 2.95696 31.089326 -0.781249
2006-02-22 08:48:00 51°11.172 2°36.661 -999 2.957374 31.094129 -0.781249
2006-02-22 08:48:05 51°11.186 2°36.676 -999 2.957167 31.091728 -0.781249
2006-02-22 08:48:08 51°11.194 2°36.685 -999 2.956754 31.086925 -0.781249
2006-02-22 08:48:15 51°11.214 2°36.707 -999 2.956133 31.081558 -0.781249
2006-02-22 08:48:20 51°11.228 2°36.723 -999 2.956133 31.081558 -0.781249
2006-02-22 08:48:25 51°11.243 2°36.738 -999 2.955616 31.076474 -0.781249
2006-02-22 08:48:30 51°11.257 2°36.753 -999 2.954892 31.068068 -0.781249
2006-02-22 08:48:35 51°11.271 2°36.769 -999 2.954478 31.063265 -0.781249
2006-02-22 08:48:39 51°11.282 2°36.782 -999 2.953858 31.05698 -0.781249
2006-02-22 08:48:45 51°11.299 2°36.801 -999 2.953341 31.052813 -0.781249
2006-02-22 08:48:50 51°11.313 2°36.816 -999 2.953341 31.052813 -0.781249
2006-02-22 08:48:55 51°11.327 2°36.831 -999 2.952927 31.048928 -0.781249
2006-02-22 08:49:00 51°11.341 2°36.846 -999 2.952617 31.045326 -0.781249
2006-02-22 08:49:04 51°11.353 2°36.859 -999 2.952203 31.041441 -0.781249
2006-02-22 08:49:10 51°11.37 2°36.878 -999 2.951893 31.039675 -0.781249
2006-02-22 08:49:15 51°11.384 2°36.894 -999 2.951583 31.036991 -0.781249
2006-02-22 08:49:20 51°11.398 2°36.91 -999 2.951583 31.036991 -0.781249
2006-02-22 08:49:24 51°11.409 2°36.922 -999 2.951376 31.035507 -0.781249
2006-02-22 08:49:28 51°11.42 2°36.935 -999 2.951272 31.035224 -0.74754
2006-02-22 08:49:35 51°11.439 2°36.956 -999 2.951066 31.034659 -0.74754
2006-02-22 08:49:40 51°11.453 2°36.971 -999 2.950859 31.033175 -0.781249
2006-02-22 08:49:45 51°11.467 2°36.986 -999 2.950549 31.031408 -0.781249
2006-02-22 08:49:50 51°11.481 2°37.002 -999 2.950549 31.031408 -0.781249
2006-02-22 08:49:55 51°11.495 2°37.016 -999 2.950135 31.027522 -0.74754
2006-02-22 08:49:59 51°11.506 2°37.028 -999 2.949825 31.024837 -0.74754
2006-02-22 08:50:04 51°11.52 2°37.043 -999 2.949411 31.020033 -0.74754
2006-02-22 08:50:09 51°11.534 2°37.059 -999 2.948894 31.015863 -0.74754
2006-02-22 08:50:14 51°11.548 2°37.074 -999 2.94817 31.010209 -0.74754
2006-02-22 08:50:20 51°11.564 2°37.091 -999 2.94817 31.010209 -0.74754
2006-02-22 08:50:25 51°11.578 2°37.107 -999 2.947343 31.005188 -0.74754
2006-02-22 08:50:30 51°11.592 2°37.122 -999 2.946929 31.002218 -0.74754
2006-02-22 08:50:35 51°11.606 2°37.136 -999 2.946515 30.999248 -0.74754
2006-02-22 08:50:40 51°11.62 2°37.151 -999 2.946102 30.99536 -0.74754
2006-02-22 08:50:44 51°11.632 2°37.163 -999 2.945791 30.992674 -0.74754
2006-02-22 08:50:50 51°11.649 2°37.18 -999 2.945791 30.992674 -0.74754
2006-02-22 08:50:55 51°11.663 2°37.196 -999 2.945378 30.989703 -0.74754
2006-02-22 08:51:00 51°11.677 2°37.211 -999 2.944964 30.98765 -0.74754